Wetterdaten: Samstag, 23.06.2018
Datum Zeit Temp. Aussen Temp. o. S. +5cm Feuchte Auss Luftdruck Regen Sonnenschein Regendauer Solar Windben Empfang
23.06.2018 00:00 12,5 C 11,7 C 11,7 C 82 % 1025,6 hPa 0,0 l/m 0 min 0 min 0 W/m 4,5 km/h (1 Bft) 93,62 %
23.06.2018 00:02 12,5 C 11,7 C 11,7 C 82 % 1025,6 hPa 0,0 l/m 0 min 0 min 0 W/m 4,5 km/h (1 Bft) 94,74 %
23.06.2018 00:04 12,5 C 11,7 C 11,7 C 81 % 1025,6 hPa 0,0 l/m 0 min 0 min 0 W/m 6,8 km/h (2 Bft) 95,74 %
23.06.2018 00:08 12,4 C 11,7 C 11,7 C 82 % 1025,7 hPa 0,0 l/m 0 min 0 min 0 W/m 6,8 km/h (2 Bft) 95,88 %
23.06.2018 00:10 12,4 C 11,7 C 11,7 C 82 % 1025,7 hPa 0,0 l/m 0 min 0 min 0 W/m 9,0 km/h (2 Bft) 95,74 %
23.06.2018 00:12 12,4 C 11,7 C 11,7 C 82 % 1025,7 hPa 0,0 l/m 0 min 0 min 0 W/m 4,5 km/h (1 Bft) 95,74 %
23.06.2018 00:14 12,4 C 11,7 C 11,7 C 82 % 1025,7 hPa 0,0 l/m 0 min 0 min 0 W/m 4,5 km/h (1 Bft) 95,74 %
23.06.2018 00:16 12,3 C 11,7 C 11,7 C 82 % 1025,7 hPa 0,0 l/m 0 min 0 min 0 W/m 6,8 km/h (2 Bft) 91,49 %
23.06.2018 00:18 12,3 C 11,7 C 11,7 C 82 % 1025,7 hPa 0,0 l/m 0 min 0 min 0 W/m 6,8 km/h (2 Bft) 95,74 %
23.06.2018 00:20 12,3 C 11,7 C 11,7 C 82 % 1025,7 hPa 0,0 l/m 0 min 0 min 0 W/m 4,5 km/h (1 Bft) 95,65 %
23.06.2018 00:22 12,3 C 11,7 C 11,7 C 82 % 1025,7 hPa 0,0 l/m 0 min 0 min 0 W/m 6,8 km/h (2 Bft) 95,74 %
23.06.2018 00:24 12,3 C 11,7 C 11,7 C 82 % 1025,7 hPa 0,0 l/m 0 min 0 min 0 W/m 6,8 km/h (2 Bft) 97,87 %
23.06.2018 00:26 12,3 C 11,7 C 11,7 C 83 % 1025,7 hPa 0,0 l/m 0 min 0 min 0 W/m 9,0 km/h (2 Bft) 95,74 %
23.06.2018 00:28 12,3 C 11,7 C 11,7 C 83 % 1025,6 hPa 0,0 l/m 0 min 0 min 0 W/m 6,8 km/h (2 Bft) 97,87 %
23.06.2018 00:30 12,3 C 11,7 C 11,7 C 83 % 1025,7 hPa 0,0 l/m 0 min 0 min 0 W/m 4,5 km/h (1 Bft) 95,74 %
23.06.2018 00:32 12,2 C 11,7 C 11,7 C 83 % 1025,6 hPa 0,0 l/m 0 min 0 min 0 W/m 2,3 km/h (1 Bft) 95,65 %
23.06.2018 00:34 12,2 C 11,7 C 11,7 C 83 % 1025,7 hPa 0,0 l/m 0 min 0 min 0 W/m 6,8 km/h (2 Bft) 97,87 %
23.06.2018 00:36 12,2 C 11,7 C 11,7 C 83 % 1025,6 hPa 0,0 l/m 0 min 0 min 0 W/m 4,5 km/h (1 Bft) 97,92 %
23.06.2018 00:38 12,2 C 11,7 C 11,7 C 83 % 1025,6 hPa 0,0 l/m 0 min 0 min 0 W/m 4,5 km/h (1 Bft) 97,87 %
23.06.2018 00:40 12,2 C 11,1 C 11,7 C 83 % 1025,6 hPa 0,0 l/m 0 min 0 min 0 W/m 4,5 km/h (1 Bft) 95,74 %
23.06.2018 00:42 12,2 C 11,1 C 11,7 C 83 % 1025,6 hPa 0,0 l/m 0 min 0 min 0 W/m 2,3 km/h (1 Bft) 97,83 %
23.06.2018 00:44 12,2 C 11,1 C 11,1 C 83 % 1025,6 hPa 0,0 l/m 0 min 0 min 0 W/m 2,3 km/h (1 Bft) 97,87 %
23.06.2018 00:46 12,2 C 11,1 C 11,1 C 83 % 1025,6 hPa 0,0 l/m 0 min 0 min 0 W/m 4,5 km/h (1 Bft) 97,87 %
23.06.2018 00:48 12,1 C 11,1 C 11,1 C 83 % 1025,7 hPa 0,0 l/m 0 min 0 min 0 W/m 4,5 km/h (1 Bft) 97,87 %
23.06.2018 00:50 12,1 C 11,1 C 11,1 C 83 % 1025,7 hPa 0,0 l/m 0 min 0 min 0 W/m 4,5 km/h (1 Bft) 97,87 %
23.06.2018 00:52 12,1 C 11,1 C 11,1 C 83 % 1025,6 hPa 0,0 l/m 0 min 0 min 0 W/m 4,5 km/h (1 Bft) 97,87 %
23.06.2018 00:54 12,1 C 11,1 C 11,1 C 83 % 1025,6 hPa 0,0 l/m 0 min 0 min 0 W/m 2,3 km/h (1 Bft) 97,83 %
23.06.2018 00:56 12,0 C 11,1 C 11,1 C 83 % 1025,6 hPa 0,0 l/m 0 min 0 min 0 W/m 2,3 km/h (1 Bft) 97,87 %
23.06.2018 00:58 12,0 C 11,1 C 11,1 C 83 % 1025,6 hPa 0,0 l/m 0 min 0 min 0 W/m 4,5 km/h (1 Bft) 97,87 %
23.06.2018 01:00 11,9 C 11,1 C 11,1 C 84 % 1025,6 hPa 0,0 l/m 0 min 0 min 0 W/m 6,8 km/h (2 Bft) 97,87 %
23.06.2018 01:02 11,9 C 10,6 C 11,1 C 83 % 1025,5 hPa 0,0 l/m 0 min 0 min 0 W/m 4,5 km/h (1 Bft) 95,92 %
23.06.2018 01:04 11,9 C 10,6 C 11,1 C 83 % 1025,5 hPa 0,0 l/m 0 min 0 min 0 W/m 2,3 km/h (1 Bft) 97,83 %
23.06.2018 01:06 11,9 C 10,6 C 11,1 C 83 % 1025,5 hPa 0,0 l/m 0 min 0 min 0 W/m 2,3 km/h (1 Bft) 100,00 %
23.06.2018 01:08 11,8 C 10,6 C 10,6 C 84 % 1025,6 hPa 0,0 l/m 0 min 0 min 0 W/m 4,5 km/h (1 Bft) 97,83 %
23.06.2018 01:10 11,8 C 10,6 C 10,6 C 84 % 1025,5 hPa 0,0 l/m 0 min 0 min 0 W/m 4,5 km/h (1 Bft) 97,87 %
23.06.2018 01:12 11,8 C 10,6 C 10,6 C 84 % 1025,5 hPa 0,0 l/m 0 min 0 min 0 W/m 0,0 km/h (0 Bft) 97,87 %
23.06.2018 01:14 11,7 C 10,6 C 10,6 C 84 % 1025,5 hPa 0,0 l/m 0 min 0 min 0 W/m 2,3 km/h (1 Bft) 91,49 %
23.06.2018 01:16 11,7 C 10,6 C 10,6 C 84 % 1025,5 hPa 0,0 l/m 0 min 0 min 0 W/m 2,3 km/h (1 Bft) 97,87 %
23.06.2018 01:18 11,6 C 10,6 C 10,6 C 84 % 1025,5 hPa 0,0 l/m 0 min 0 min 0 W/m 2,3 km/h (1 Bft) 93,62 %
23.06.2018 01:20 11,6 C 10,0 C 10,6 C 84 % 1025,5 hPa 0,0 l/m 0 min 0 min 0 W/m 2,3 km/h (1 Bft) 100,00 %
23.06.2018 01:22 11,5 C 10,0 C 10,6 C 84 % 1025,5 hPa 0,0 l/m 0 min 0 min 0 W/m 2,3 km/h (1 Bft) 100,00 %
23.06.2018 01:24 11,5 C 10,0 C 10,6 C 84 % 1025,5 hPa 0,0 l/m 0 min 0 min 0 W/m 2,3 km/h (1 Bft) 97,14 %
23.06.2018 01:26 11,4 C 10,0 C 10,6 C 84 % 1025,5 hPa 0,0 l/m 0 min 0 min 0 W/m 2,3 km/h (1 Bft) 95,74 %
23.06.2018 01:28 11,4 C 10,0 C 10,6 C 85 % 1025,5 hPa 0,0 l/m 0 min 0 min 0 W/m 2,3 km/h (1 Bft) 97,87 %
23.06.2018 01:30 11,4 C 10,0 C 10,6 C 85 % 1025,4 hPa 0,0 l/m 0 min 0 min 0 W/m 0,0 km/h (0 Bft) 100,00 %
23.06.2018 01:32 11,3 C 10,0 C 10,6 C 85 % 1025,4 hPa 0,0 l/m 0 min 0 min 0 W/m 0,0 km/h (0 Bft) 97,83 %
23.06.2018 01:34 11,3 C 10,0 C 10,6 C 85 % 1025,3 hPa 0,0 l/m 0 min 0 min 0 W/m 0,0 km/h (0 Bft) 97,87 %
23.06.2018 01:36 11,3 C 10,0 C 10,6 C 85 % 1025,4 hPa 0,0 l/m 0 min 0 min 0 W/m 0,0 km/h (0 Bft) 95,74 %
23.06.2018 01:38 11,3 C 10,0 C 10,6 C 85 % 1025,4 hPa 0,0 l/m 0 min 0 min 0 W/m 0,0 km/h (0 Bft) 95,74 %
23.06.2018 01:40 11,2 C 10,0 C 10,6 C 86 % 1025,5 hPa 0,0 l/m 0 min 0 min 0 W/m 0,0 km/h (0 Bft) 97,87 %
23.06.2018 01:42 11,2 C 10,6 C 10,6 C 86 % 1025,5 hPa 0,0 l/m 0 min 0 min 0 W/m 0,0 km/h (0 Bft) 95,74 %
23.06.2018 01:44 11,2 C 10,6 C 10,6 C 86 % 1025,5 hPa 0,0 l/m 0 min 0 min 0 W/m 2,3 km/h (1 Bft) 95,65 %
23.06.2018 01:46 11,2 C 10,6 C 10,6 C 86 % 1025,5 hPa 0,0 l/m 0 min 0 min 0 W/m 0,0 km/h (0 Bft) 97,96 %
23.06.2018 01:48 11,2 C 10,6 C 10,6 C 86 % 1025,5 hPa 0,0 l/m 0 min 0 min 0 W/m 2,3 km/h (1 Bft) 95,74 %
23.06.2018 01:50 11,2 C 10,6 C 10,6 C 86 % 1025,4 hPa 0,0 l/m 0 min 0 min 0 W/m 4,5 km/h (1 Bft) 97,87 %
23.06.2018 01:52 11,2 C 10,6 C 10,6 C 86 % 1025,4 hPa 0,0 l/m 0 min 0 min 0 W/m 0,0 km/h (0 Bft) 97,87 %
23.06.2018 01:54 11,2 C 10,6 C 10,6 C 87 % 1025,5 hPa 0,0 l/m 0 min 0 min 0 W/m 2,3 km/h (1 Bft) 95,65 %
23.06.2018 01:56 11,2 C 10,6 C 10,6 C 87 % 1025,4 hPa 0,0 l/m 0 min 0 min 0 W/m 0,0 km/h (0 Bft) 97,87 %
23.06.2018 01:58 11,2 C 10,6 C 10,6 C 87 % 1025,5 hPa 0,0 l/m 0 min 0 min 0 W/m 2,3 km/h (1 Bft) 97,87 %
23.06.2018 02:00 11,1 C 10,0 C 10,6 C 87 % 1025,4 hPa 0,0 l/m 0 min 0 min 0 W/m 6,8 km/h (2 Bft) 97,87 %
23.06.2018 02:02 11,1 C 10,0 C 10,6 C 87 % 1025,4 hPa 0,0 l/m 0 min 0 min 0 W/m 0,0 km/h (0 Bft) 97,87 %
23.06.2018 02:04 11,1 C 10,0 C 10,6 C 87 % 1025,4 hPa 0,0 l/m 0 min 0 min 0 W/m 0,0 km/h (0 Bft) 97,87 %
23.06.2018 02:06 11,1 C 10,0 C 10,6 C 87 % 1025,4 hPa 0,0 l/m 0 min 0 min 0 W/m 0,0 km/h (0 Bft) 97,83 %
23.06.2018 02:08 11,1 C 10,0 C 10,6 C 87 % 1025,4 hPa 0,0 l/m 0 min 0 min 0 W/m 0,0 km/h (0 Bft) 97,87 %
23.06.2018 02:10 11,1 C 10,0 C 10,6 C 87 % 1025,3 hPa 0,0 l/m 0 min 0 min 0 W/m 0,0 km/h (0 Bft) 97,87 %
23.06.2018 02:12 11,1 C 10,0 C 10,6 C 87 % 1025,2 hPa 0,0 l/m 0 min 0 min 0 W/m 0,0 km/h (0 Bft) 95,74 %
23.06.2018 02:14 11,0 C 10,0 C 10,0 C 87 % 1025,3 hPa 0,0 l/m 0 min 0 min 0 W/m 0,0 km/h (0 Bft) 93,62 %
23.06.2018 02:16 11,0 C 10,0 C 10,0 C 87 % 1025,4 hPa 0,0 l/m 0 min 0 min 0 W/m 0,0 km/h (0 Bft) 100,00 %
23.06.2018 02:18 11,0 C 10,0 C 10,0 C 87 % 1025,4 hPa 0,0 l/m 0 min 0 min 0 W/m 0,0 km/h (0 Bft) 100,00 %
23.06.2018 02:20 10,9 C 9,4 C 10,0 C 87 % 1025,4 hPa 0,0 l/m 0 min 0 min 0 W/m 0,0 km/h (0 Bft) 97,87 %
23.06.2018 02:22 10,9 C 9,4 C 10,0 C 87 % 1025,4 hPa 0,0 l/m 0 min 0 min 0 W/m 0,0 km/h (0 Bft) 100,00 %
23.06.2018 02:24 10,9 C 9,4 C 10,0 C 87 % 1025,4 hPa 0,0 l/m 0 min 0 min 0 W/m 0,0 km/h (0 Bft) 100,00 %
23.06.2018 02:26 10,8 C 9,4 C 10,0 C 87 % 1025,4 hPa 0,0 l/m 0 min 0 min 0 W/m 0,0 km/h (0 Bft) 100,00 %
23.06.2018 02:28 10,8 C 9,4 C 10,0 C 87 % 1025,4 hPa 0,0 l/m 0 min 0 min 0 W/m 0,0 km/h (0 Bft) 100,00 %
23.06.2018 02:30 10,8 C 9,4 C 10,0 C 87 % 1025,3 hPa 0,0 l/m 0 min 0 min 0 W/m 0,0 km/h (0 Bft) 100,00 %
23.06.2018 02:32 10,7 C 9,4 C 10,0 C 87 % 1025,3 hPa 0,0 l/m 0 min 0 min 0 W/m 0,0 km/h (0 Bft) 100,00 %
23.06.2018 02:34 10,7 C 9,4 C 9,4 C 87 % 1025,4 hPa 0,0 l/m 0 min 0 min 0 W/m 0,0 km/h (0 Bft) 100,00 %
23.06.2018 02:36 10,7 C 9,4 C 9,4 C 87 % 1025,4 hPa 0,0 l/m 0 min 0 min 0 W/m 0,0 km/h (0 Bft) 100,00 %
23.06.2018 02:38 10,6 C 9,4 C 9,4 C 87 % 1025,4 hPa 0,0 l/m 0 min 0 min 0 W/m 0,0 km/h (0 Bft) 100,00 %
23.06.2018 02:40 10,6 C 9,4 C 9,4 C 88 % 1025,4 hPa 0,0 l/m 0 min 0 min 0 W/m 0,0 km/h (0 Bft) 97,87 %
23.06.2018 02:42 10,6 C 9,4 C 9,4 C 88 % 1025,4 hPa 0,0 l/m 0 min 0 min 0 W/m 0,0 km/h (0 Bft) 100,00 %
23.06.2018 02:44 10,5 C 8,9 C 9,4 C 88 % 1025,4 hPa 0,0 l/m 0 min 0 min 0 W/m 0,0 km/h (0 Bft) 100,00 %
23.06.2018 02:46 10,5 C 8,9 C 9,4 C 88 % 1025,4 hPa 0,0 l/m 0 min 0 min 0 W/m 0,0 km/h (0 Bft) 100,00 %
23.06.2018 02:48 10,4 C 8,9 C 9,4 C 88 % 1025,4 hPa 0,0 l/m 0 min 0 min 0 W/m 0,0 km/h (0 Bft) 97,87 %
23.06.2018 02:50 10,4 C 8,9 C 9,4 C 88 % 1025,4 hPa 0,0 l/m 0 min 0 min 0 W/m 0,0 km/h (0 Bft) 97,87 %
23.06.2018 02:52 10,4 C 8,9 C 9,4 C 88 % 1025,4 hPa 0,0 l/m 0 min 0 min 0 W/m 0,0 km/h (0 Bft) 97,83 %
23.06.2018 02:54 10,3 C 8,9 C 9,4 C 88 % 1025,4 hPa 0,0 l/m 0 min 0 min 0 W/m 0,0 km/h (0 Bft) 95,74 %
23.06.2018 02:56 10,3 C 8,9 C 9,4 C 88 % 1025,4 hPa 0,0 l/m 0 min 0 min 0 W/m 0,0 km/h (0 Bft) 97,87 %
23.06.2018 02:58 10,2 C 8,9 C 9,4 C 88 % 1025,3 hPa 0,0 l/m 0 min 0 min 0 W/m 0,0 km/h (0 Bft) 97,87 %
23.06.2018 03:00 10,2 C 8,9 C 9,4 C 88 % 1025,4 hPa 0,0 l/m 0 min 0 min 0 W/m 4,5 km/h (1 Bft) 97,87 %
23.06.2018 03:02 10,2 C 8,9 C 9,4 C 88 % 1025,4 hPa 0,0 l/m 0 min 0 min 0 W/m 2,3 km/h (1 Bft) 97,87 %
23.06.2018 03:04 10,1 C 8,9 C 9,4 C 88 % 1025,5 hPa 0,0 l/m 0 min 0 min 0 W/m 0,0 km/h (0 Bft) 97,87 %
23.06.2018 03:06 10,1 C 8,9 C 9,4 C 89 % 1025,4 hPa 0,0 l/m 0 min 0 min 0 W/m 0,0 km/h (0 Bft) 97,83 %
23.06.2018 03:08 10,1 C 8,9 C 9,4 C 89 % 1025,3 hPa 0,0 l/m 0 min 0 min 0 W/m 2,3 km/h (1 Bft) 97,87 %
23.06.2018 03:10 10,0 C 8,9 C 9,4 C 89 % 1025,4 hPa 0,0 l/m 0 min 0 min 0 W/m 2,3 km/h (1 Bft) 97,87 %
23.06.2018 03:12 9,9 C 8,9 C 9,4 C 89 % 1025,4 hPa 0,0 l/m 0 min 0 min 0 W/m 0,0 km/h (0 Bft) 95,74 %
23.06.2018 03:14 9,9 C 8,9 C 9,4 C 89 % 1025,4 hPa 0,0 l/m 0 min 0 min 0 W/m 0,0 km/h (0 Bft) 97,87 %
23.06.2018 03:16 9,9 C 8,9 C 9,4 C 89 % 1025,4 hPa 0,0 l/m 0 min 0 min 0 W/m 0,0 km/h (0 Bft) 97,83 %
23.06.2018 03:18 9,9 C 8,9 C 9,4 C 89 % 1025,4 hPa 0,0 l/m 0 min 0 min 0 W/m 0,0 km/h (0 Bft) 97,87 %
23.06.2018 03:20 9,9 C 8,9 C 9,4 C 89 % 1025,4 hPa 0,0 l/m 0 min 0 min 0 W/m 0,0 km/h (0 Bft) 98,31 %
23.06.2018 03:22 9,9 C 8,3 C 9,4 C 89 % 1025,5 hPa 0,0 l/m 0 min 0 min 0 W/m 0,0 km/h (0 Bft) 94,29 %
23.06.2018 03:24 9,8 C 8,3 C 9,4 C 89 % 1025,4 hPa 0,0 l/m 0 min 0 min 0 W/m 0,0 km/h (0 Bft) 97,87 %
23.06.2018 03:26 9,8 C 8,3 C 9,4 C 89 % 1025,5 hPa 0,0 l/m 0 min 0 min 0 W/m 0,0 km/h (0 Bft) 97,87 %
23.06.2018 03:28 9,8 C 8,3 C 9,4 C 89 % 1025,5 hPa 0,0 l/m 0 min 0 min 0 W/m 0,0 km/h (0 Bft) 97,83 %
23.06.2018 03:30 9,7 C 8,3 C 9,4 C 89 % 1025,4 hPa 0,0 l/m 0 min 0 min 0 W/m 0,0 km/h (0 Bft) 95,74 %
23.06.2018 03:32 9,7 C 8,3 C 9,4 C 89 % 1025,4 hPa 0,0 l/m 0 min 0 min 0 W/m 0,0 km/h (0 Bft) 97,87 %
23.06.2018 03:34 9,7 C 8,3 C 8,9 C 89 % 1025,4 hPa 0,0 l/m 0 min 0 min 0 W/m 0,0 km/h (0 Bft) 97,87 %
23.06.2018 03:38 9,7 C 8,3 C 8,9 C 89 % 1025,4 hPa 0,0 l/m 0 min 0 min 0 W/m 0,0 km/h (0 Bft) 97,87 %
23.06.2018 03:40 9,6 C 8,3 C 8,9 C 89 % 1025,3 hPa 0,0 l/m 0 min 0 min 0 W/m 0,0 km/h (0 Bft) 95,65 %
23.06.2018 03:42 9,6 C 8,3 C 8,9 C 89 % 1025,4 hPa 0,0 l/m 0 min 0 min 0 W/m 0,0 km/h (0 Bft) 95,74 %
23.06.2018 03:44 9,6 C 8,3 C 8,9 C 89 % 1025,3 hPa 0,0 l/m 0 min 0 min 0 W/m 0,0 km/h (0 Bft) 95,74 %
23.06.2018 03:46 9,6 C 8,3 C 8,9 C 89 % 1025,3 hPa 0,0 l/m 0 min 0 min 0 W/m 0,0 km/h (0 Bft) 95,74 %
23.06.2018 03:48 9,6 C 8,3 C 8,9 C 89 % 1025,4 hPa 0,0 l/m 0 min 0 min 0 W/m 2,3 km/h (1 Bft) 97,87 %
23.06.2018 03:50 9,5 C 8,3 C 8,9 C 89 % 1025,3 hPa 0,0 l/m 0 min 0 min 0 W/m 2,3 km/h (1 Bft) 96,55 %
23.06.2018 03:52 9,5 C 8,3 C 8,9 C 90 % 1025,3 hPa 0,0 l/m 0 min 0 min 0 W/m 0,0 km/h (0 Bft) 100,00 %
23.06.2018 03:54 9,5 C 8,3 C 8,9 C 90 % 1025,3 hPa 0,0 l/m 0 min 0 min 0 W/m 0,0 km/h (0 Bft) 97,87 %
23.06.2018 03:56 9,4 C 8,3 C 8,9 C 90 % 1025,3 hPa 0,0 l/m 0 min 0 min 0 W/m 0,0 km/h (0 Bft) 100,00 %
23.06.2018 03:58 9,4 C 8,3 C 8,9 C 90 % 1025,3 hPa 0,0 l/m 0 min 0 min 0 W/m 2,3 km/h (1 Bft) 93,62 %
23.06.2018 04:00 9,4 C 8,3 C 8,9 C 90 % 1025,3 hPa 0,0 l/m 0 min 0 min 0 W/m 2,3 km/h (1 Bft) 97,87 %
23.06.2018 04:02 9,4 C 8,3 C 8,9 C 90 % 1025,3 hPa 0,0 l/m 0 min 0 min 0 W/m 0,0 km/h (0 Bft) 94,12 %
23.06.2018 04:04 9,4 C 8,3 C 8,9 C 90 % 1025,3 hPa 0,0 l/m 0 min 0 min 0 W/m 0,0 km/h (0 Bft) 97,83 %
23.06.2018 04:06 9,4 C 8,3 C 8,9 C 90 % 1025,2 hPa 0,0 l/m 0 min 0 min 0 W/m 0,0 km/h (0 Bft) 97,87 %
23.06.2018 04:08 9,4 C 8,3 C 8,9 C 90 % 1025,2 hPa 0,0 l/m 0 min 0 min 0 W/m 0,0 km/h (0 Bft) 97,87 %
23.06.2018 04:10 9,3 C 8,3 C 8,9 C 90 % 1025,2 hPa 0,0 l/m 0 min 0 min 0 W/m 2,3 km/h (1 Bft) 97,87 %
23.06.2018 04:12 9,3 C 8,3 C 8,9 C 90 % 1025,2 hPa 0,0 l/m 0 min 0 min 0 W/m 0,0 km/h (0 Bft) 97,87 %
23.06.2018 04:14 9,3 C 8,3 C 8,9 C 90 % 1025,2 hPa 0,0 l/m 0 min 0 min 0 W/m 2,3 km/h (1 Bft) 97,83 %
23.06.2018 04:16 9,3 C 8,3 C 8,9 C 90 % 1025,2 hPa 0,0 l/m 0 min 0 min 0 W/m 4,5 km/h (1 Bft) 93,88 %
23.06.2018 04:18 9,3 C 8,3 C 8,9 C 90 % 1025,3 hPa 0,0 l/m 0 min 0 min 0 W/m 0,0 km/h (0 Bft) 97,87 %
23.06.2018 04:20 9,3 C 8,3 C 8,9 C 90 % 1025,3 hPa 0,0 l/m 0 min 0 min 0 W/m 0,0 km/h (0 Bft) 95,74 %
23.06.2018 04:22 9,3 C 8,3 C 8,9 C 90 % 1025,2 hPa 0,0 l/m 0 min 0 min 0 W/m 0,0 km/h (0 Bft) 97,87 %
23.06.2018 04:24 9,2 C 8,3 C 8,9 C 90 % 1025,2 hPa 0,0 l/m 0 min 0 min 0 W/m 0,0 km/h (0 Bft) 97,87 %
23.06.2018 04:26 9,2 C 8,3 C 8,9 C 90 % 1025,2 hPa 0,0 l/m 0 min 0 min 0 W/m 0,0 km/h (0 Bft) 95,65 %
23.06.2018 04:28 9,2 C 8,3 C 8,9 C 90 % 1025,2 hPa 0,0 l/m 0 min 0 min 0 W/m 0,0 km/h (0 Bft) 95,74 %
23.06.2018 04:30 9,2 C 8,3 C 8,9 C 90 % 1025,2 hPa 0,0 l/m 0 min 0 min 0 W/m 0,0 km/h (0 Bft) 97,87 %
23.06.2018 04:32 9,2 C 8,3 C 8,9 C 90 % 1025,2 hPa 0,0 l/m 0 min 0 min 0 W/m 0,0 km/h (0 Bft) 97,87 %
23.06.2018 04:34 9,3 C 8,3 C 8,9 C 90 % 1025,2 hPa 0,0 l/m 0 min 0 min 0 W/m 0,0 km/h (0 Bft) 97,87 %
23.06.2018 04:36 9,2 C 8,3 C 8,9 C 90 % 1025,1 hPa 0,0 l/m 0 min 0 min 0 W/m 0,0 km/h (0 Bft) 100,00 %
23.06.2018 04:38 9,2 C 8,3 C 8,9 C 90 % 1025,2 hPa 0,0 l/m 0 min 0 min 0 W/m 0,0 km/h (0 Bft) 100,00 %
23.06.2018 04:40 9,2 C 8,3 C 8,9 C 90 % 1025,2 hPa 0,0 l/m 0 min 0 min 0 W/m 0,0 km/h (0 Bft) 100,00 %
23.06.2018 04:42 9,2 C 8,3 C 8,9 C 90 % 1025,3 hPa 0,0 l/m 0 min 0 min 0 W/m 0,0 km/h (0 Bft) 100,00 %
23.06.2018 04:44 9,2 C 8,3 C 8,9 C 90 % 1025,3 hPa 0,0 l/m 0 min 0 min 0 W/m 0,0 km/h (0 Bft) 100,00 %
23.06.2018 04:46 9,2 C 8,3 C 8,9 C 90 % 1025,3 hPa 0,0 l/m 0 min 0 min 0 W/m 0,0 km/h (0 Bft) 100,00 %
23.06.2018 04:48 9,2 C 8,3 C 8,9 C 90 % 1025,3 hPa 0,0 l/m 0 min 0 min 0 W/m 0,0 km/h (0 Bft) 100,00 %
23.06.2018 04:50 9,2 C 8,3 C 8,9 C 91 % 1025,3 hPa 0,0 l/m 0 min 0 min 0 W/m 0,0 km/h (0 Bft) 100,00 %
23.06.2018 04:52 9,2 C 8,3 C 8,9 C 91 % 1025,3 hPa 0,0 l/m 0 min 0 min 0 W/m 2,3 km/h (1 Bft) 100,00 %
23.06.2018 04:54 9,2 C 8,3 C 8,9 C 91 % 1025,3 hPa 0,0 l/m 0 min 0 min 0 W/m 0,0 km/h (0 Bft) 100,00 %
23.06.2018 04:56 9,2 C 8,3 C 8,9 C 91 % 1025,3 hPa 0,0 l/m 0 min 0 min 0 W/m 0,0 km/h (0 Bft) 100,00 %
23.06.2018 04:58 9,2 C 8,3 C 8,9 C 91 % 1025,3 hPa 0,0 l/m 0 min 0 min 0 W/m 0,0 km/h (0 Bft) 100,00 %
23.06.2018 05:00 9,2 C 8,3 C 8,9 C 91 % 1025,3 hPa 0,0 l/m 0 min 0 min 0 W/m 0,0 km/h (0 Bft) 100,00 %
23.06.2018 05:02 9,1 C 8,3 C 8,9 C 90 % 1025,3 hPa 0,0 l/m 0 min 0 min 0 W/m 0,0 km/h (0 Bft) 100,00 %
23.06.2018 05:04 9,1 C 8,3 C 8,9 C 91 % 1025,3 hPa 0,0 l/m 0 min 0 min 0 W/m 0,0 km/h (0 Bft) 100,00 %
23.06.2018 05:06 9,1 C 8,3 C 8,9 C 91 % 1025,2 hPa 0,0 l/m 0 min 0 min 0 W/m 0,0 km/h (0 Bft) 100,00 %
23.06.2018 05:08 9,1 C 8,3 C 8,9 C 91 % 1025,2 hPa 0,0 l/m 0 min 0 min 0 W/m 0,0 km/h (0 Bft) 97,87 %
23.06.2018 05:10 9,1 C 8,3 C 8,9 C 91 % 1025,2 hPa 0,0 l/m 0 min 0 min 0 W/m 0,0 km/h (0 Bft) 100,00 %
23.06.2018 05:12 9,1 C 8,3 C 8,9 C 91 % 1025,2 hPa 0,0 l/m 0 min 0 min 0 W/m 2,3 km/h (1 Bft) 100,00 %
23.06.2018 05:14 9,1 C 8,3 C 8,3 C 91 % 1025,2 hPa 0,0 l/m 0 min 0 min 0 W/m 2,3 km/h (1 Bft) 100,00 %
23.06.2018 05:16 9,1 C 8,3 C 8,9 C 91 % 1025,2 hPa 0,0 l/m 0 min 0 min 0 W/m 2,3 km/h (1 Bft) 97,87 %
23.06.2018 05:18 9,1 C 8,3 C 8,9 C 91 % 1025,2 hPa 0,0 l/m 0 min 0 min 0 W/m 2,3 km/h (1 Bft) 100,00 %
23.06.2018 05:20 9,1 C 8,3 C 8,3 C 91 % 1025,3 hPa 0,0 l/m 0 min 0 min 0 W/m 2,3 km/h (1 Bft) 100,00 %
23.06.2018 05:22 9,0 C 8,3 C 8,3 C 91 % 1025,4 hPa 0,0 l/m 0 min 0 min 1 W/m 0,0 km/h (0 Bft) 100,00 %
23.06.2018 05:24 9,0 C 8,3 C 8,3 C 91 % 1025,3 hPa 0,0 l/m 0 min 0 min 5 W/m 2,3 km/h (1 Bft) 100,00 %
23.06.2018 05:26 9,0 C 8,3 C 8,3 C 91 % 1025,3 hPa 0,0 l/m 0 min 0 min 5 W/m 2,3 km/h (1 Bft) 97,87 %
23.06.2018 05:28 9,0 C 7,8 C 8,3 C 91 % 1025,3 hPa 0,0 l/m 0 min 0 min 5 W/m 0,0 km/h (0 Bft) 95,74 %
23.06.2018 05:30 8,9 C 8,3 C 8,9 C 91 % 1025,3 hPa 0,0 l/m 0 min 0 min 7 W/m 2,3 km/h (1 Bft) 100,00 %
23.06.2018 05:32 8,9 C 8,3 C 8,9 C 91 % 1025,3 hPa 0,0 l/m 0 min 0 min 7 W/m 2,3 km/h (1 Bft) 97,87 %
23.06.2018 05:34 8,9 C 7,8 C 8,3 C 91 % 1025,3 hPa 0,0 l/m 0 min 0 min 9 W/m 2,3 km/h (1 Bft) 97,87 %
23.06.2018 05:35 8,9 C 8,3 C 8,9 C 91 % 1025,3 hPa 0,0 l/m 0 min 0 min 9 W/m 2,3 km/h (1 Bft) 100,00 %
23.06.2018 05:43 8,9 C 8,3 C 8,3 C 91 % 1025,5 hPa 0,0 l/m 0 min 0 min 11 W/m 2,3 km/h (1 Bft) 98,31 %
23.06.2018 05:44 8,9 C 8,3 C 8,3 C 91 % 1025,5 hPa 0,0 l/m 0 min 0 min 11 W/m 0,0 km/h (0 Bft) 95,65 %
23.06.2018 05:46 8,9 C 8,3 C 8,3 C 91 % 1025,4 hPa 0,0 l/m 0 min 0 min 11 W/m 2,3 km/h (1 Bft) 97,87 %
23.06.2018 05:48 8,9 C 8,3 C 8,3 C 91 % 1025,4 hPa 0,0 l/m 0 min 0 min 11 W/m 0,0 km/h (0 Bft) 97,87 %
23.06.2018 05:50 8,9 C 8,3 C 8,3 C 91 % 1025,5 hPa 0,0 l/m 0 min 0 min 11 W/m 0,0 km/h (0 Bft) 97,87 %
23.06.2018 05:52 8,9 C 8,3 C 8,3 C 91 % 1025,4 hPa 0,0 l/m 0 min 0 min 11 W/m 0,0 km/h (0 Bft) 97,87 %
23.06.2018 05:54 8,9 C 8,3 C 8,3 C 91 % 1025,4 hPa 0,0 l/m 0 min 0 min 11 W/m 0,0 km/h (0 Bft) 97,83 %
23.06.2018 05:56 8,9 C 7,8 C 8,3 C 91 % 1025,4 hPa 0,0 l/m 0 min 0 min 11 W/m 0,0 km/h (0 Bft) 97,87 %
23.06.2018 05:58 8,8 C 8,3 C 8,3 C 91 % 1025,4 hPa 0,0 l/m 0 min 0 min 12 W/m 0,0 km/h (0 Bft) 97,87 %
23.06.2018 06:00 8,8 C 8,3 C 8,3 C 91 % 1025,4 hPa 0,0 l/m 0 min 0 min 13 W/m 0,0 km/h (0 Bft) 95,74 %
23.06.2018 06:02 8,8 C 8,3 C 8,3 C 91 % 1025,4 hPa 0,0 l/m 0 min 0 min 14 W/m 0,0 km/h (0 Bft) 95,74 %
23.06.2018 06:04 8,8 C 8,3 C 8,3 C 91 % 1025,4 hPa 0,0 l/m 0 min 0 min 15 W/m 0,0 km/h (0 Bft) 97,87 %
23.06.2018 06:07 8,8 C 8,3 C 8,3 C 91 % 1025,5 hPa 0,0 l/m 0 min 0 min 14 W/m 2,3 km/h (1 Bft) 97,87 %
23.06.2018 06:08 8,8 C 8,3 C 8,3 C 91 % 1025,4 hPa 0,0 l/m 0 min 0 min 15 W/m 2,3 km/h (1 Bft) 96,91 %
23.06.2018 06:10 8,8 C 8,3 C 8,3 C 91 % 1025,4 hPa 0,0 l/m 0 min 0 min 14 W/m 0,0 km/h (0 Bft) 95,74 %
23.06.2018 06:12 8,8 C 8,3 C 8,3 C 91 % 1025,5 hPa 0,0 l/m 0 min 0 min 15 W/m 0,0 km/h (0 Bft) 93,48 %
23.06.2018 06:14 8,8 C 8,3 C 8,3 C 91 % 1025,5 hPa 0,0 l/m 0 min 0 min 16 W/m 0,0 km/h (0 Bft) 93,62 %
23.06.2018 06:16 8,8 C 8,3 C 8,3 C 91 % 1025,5 hPa 0,0 l/m 0 min 0 min 17 W/m 0,0 km/h (0 Bft) 93,62 %
23.06.2018 06:18 8,8 C 8,3 C 8,3 C 91 % 1025,4 hPa 0,0 l/m 0 min 0 min 18 W/m 0,0 km/h (0 Bft) 93,62 %
23.06.2018 06:20 8,8 C 8,3 C 8,3 C 91 % 1025,4 hPa 0,0 l/m 0 min 0 min 20 W/m 2,3 km/h (1 Bft) 95,74 %
23.06.2018 06:22 8,8 C 8,3 C 8,3 C 91 % 1025,4 hPa 0,0 l/m 0 min 0 min 28 W/m 0,0 km/h (0 Bft) 95,65 %
23.06.2018 06:24 8,8 C 8,3 C 8,9 C 91 % 1025,3 hPa 0,0 l/m 0 min 0 min 28 W/m 0,0 km/h (0 Bft) 97,87 %
23.06.2018 06:26 8,8 C 8,3 C 8,9 C 91 % 1025,3 hPa 0,0 l/m 0 min 0 min 26 W/m 0,0 km/h (0 Bft) 95,74 %
23.06.2018 06:28 8,8 C 8,3 C 8,9 C 91 % 1025,3 hPa 0,0 l/m 0 min 0 min 33 W/m 2,3 km/h (1 Bft) 95,74 %
23.06.2018 06:30 8,8 C 8,9 C 8,9 C 91 % 1025,2 hPa 0,0 l/m 0 min 0 min 43 W/m 2,3 km/h (1 Bft) 93,62 %
23.06.2018 06:32 8,8 C 8,9 C 8,9 C 92 % 1025,2 hPa 0,0 l/m 0 min 0 min 45 W/m 0,0 km/h (0 Bft) 91,43 %
23.06.2018 06:34 8,9 C 8,9 C 8,9 C 92 % 1025,2 hPa 0,0 l/m 0 min 0 min 46 W/m 0,0 km/h (0 Bft) 93,62 %
23.06.2018 06:36 8,9 C 8,9 C 8,9 C 92 % 1025,3 hPa 0,0 l/m 0 min 0 min 47 W/m 0,0 km/h (0 Bft) 96,30 %
23.06.2018 06:38 8,9 C 9,4 C 9,4 C 92 % 1025,3 hPa 0,0 l/m 0 min 0 min 49 W/m 2,3 km/h (1 Bft) 93,62 %
23.06.2018 06:40 8,9 C 9,4 C 9,4 C 92 % 1025,3 hPa 0,0 l/m 0 min 0 min 50 W/m 4,5 km/h (1 Bft) 89,36 %
23.06.2018 06:42 9,0 C 9,4 C 9,4 C 92 % 1025,3 hPa 0,0 l/m 0 min 0 min 50 W/m 2,3 km/h (1 Bft) 91,30 %
23.06.2018 06:44 9,0 C 9,4 C 9,4 C 92 % 1025,3 hPa 0,0 l/m 0 min 0 min 56 W/m 2,3 km/h (1 Bft) 93,62 %
23.06.2018 06:46 9,1 C 9,4 C 9,4 C 92 % 1025,4 hPa 0,0 l/m 0 min 0 min 71 W/m 4,5 km/h (1 Bft) 95,74 %
23.06.2018 06:48 9,1 C 9,4 C 9,4 C 92 % 1025,3 hPa 0,0 l/m 0 min 0 min 81 W/m 2,3 km/h (1 Bft) 95,74 %
23.06.2018 06:50 9,2 C 10,0 C 9,4 C 92 % 1025,3 hPa 0,0 l/m 0 min 0 min 76 W/m 2,3 km/h (1 Bft) 93,62 %
23.06.2018 06:52 9,2 C 10,0 C 9,4 C 92 % 1025,4 hPa 0,0 l/m 0 min 0 min 81 W/m 2,3 km/h (1 Bft) 97,87 %
23.06.2018 06:54 9,2 C 10,0 C 9,4 C 92 % 1025,4 hPa 0,0 l/m 0 min 0 min 96 W/m 2,3 km/h (1 Bft) 95,65 %
23.06.2018 06:56 9,3 C 10,0 C 9,4 C 92 % 1025,4 hPa 0,0 l/m 2 min 0 min 122 W/m 2,3 km/h (1 Bft) 93,62 %
23.06.2018 06:58 9,3 C 10,0 C 9,4 C 92 % 1025,4 hPa 0,0 l/m 2 min 0 min 133 W/m 4,5 km/h (1 Bft) 95,74 %
23.06.2018 07:00 9,4 C 10,6 C 9,4 C 92 % 1025,4 hPa 0,0 l/m 2 min 0 min 117 W/m 2,3 km/h (1 Bft) 95,74 %
23.06.2018 07:02 9,4 C 10,6 C 9,4 C 92 % 1025,3 hPa 0,0 l/m 0 min 0 min 92 W/m 0,0 km/h (0 Bft) 93,62 %
23.06.2018 07:04 9,5 C 10,6 C 9,4 C 92 % 1025,3 hPa 0,0 l/m 0 min 0 min 81 W/m 2,3 km/h (1 Bft) 97,87 %
23.06.2018 07:06 9,6 C 10,6 C 10,0 C 92 % 1025,4 hPa 0,0 l/m 0 min 0 min 75 W/m 0,0 km/h (0 Bft) 95,65 %
23.06.2018 07:08 9,6 C 10,6 C 10,0 C 92 % 1025,3 hPa 0,0 l/m 0 min 0 min 87 W/m 6,8 km/h (2 Bft) 97,87 %
23.06.2018 07:10 9,7 C 10,6 C 10,0 C 92 % 1025,4 hPa 0,0 l/m 0 min 0 min 102 W/m 0,0 km/h (0 Bft) 97,87 %
23.06.2018 07:12 9,7 C 10,6 C 10,0 C 92 % 1025,3 hPa 0,0 l/m 0 min 0 min 111 W/m 0,0 km/h (0 Bft) 97,87 %
23.06.2018 07:14 9,8 C 10,6 C 10,0 C 92 % 1025,3 hPa 0,0 l/m 0 min 0 min 90 W/m 4,5 km/h (1 Bft) 95,74 %
23.06.2018 07:16 9,8 C 10,6 C 10,0 C 92 % 1025,3 hPa 0,0 l/m 0 min 0 min 78 W/m 2,3 km/h (1 Bft) 95,65 %
23.06.2018 07:18 9,9 C 10,6 C 10,0 C 92 % 1025,3 hPa 0,0 l/m 0 min 0 min 65 W/m 2,3 km/h (1 Bft) 97,87 %
23.06.2018 07:20 9,9 C 10,6 C 10,0 C 92 % 1025,2 hPa 0,0 l/m 0 min 0 min 65 W/m 4,5 km/h (1 Bft) 100,00 %
23.06.2018 07:22 9,9 C 10,6 C 10,0 C 92 % 1025,3 hPa 0,0 l/m 0 min 0 min 77 W/m 2,3 km/h (1 Bft) 100,00 %
23.06.2018 07:24 10,0 C 10,6 C 10,0 C 92 % 1025,2 hPa 0,0 l/m 0 min 0 min 75 W/m 2,3 km/h (1 Bft) 97,87 %
23.06.2018 07:26 10,1 C 10,6 C 10,0 C 92 % 1025,3 hPa 0,0 l/m 0 min 0 min 66 W/m 4,5 km/h (1 Bft) 100,00 %
23.06.2018 07:28 10,1 C 10,6 C 10,0 C 92 % 1025,4 hPa 0,0 l/m 0 min 0 min 59 W/m 4,5 km/h (1 Bft) 100,00 %
23.06.2018 07:30 10,2 C 10,6 C 10,0 C 92 % 1025,4 hPa 0,0 l/m 0 min 0 min 55 W/m 0,0 km/h (0 Bft) 100,00 %
23.06.2018 07:32 10,2 C 10,6 C 10,0 C 92 % 1025,4 hPa 0,0 l/m 0 min 0 min 53 W/m 0,0 km/h (0 Bft) 97,87 %
23.06.2018 07:34 10,2 C 10,6 C 10,0 C 92 % 1025,3 hPa 0,0 l/m 0 min 0 min 50 W/m 2,3 km/h (1 Bft) 100,00 %
23.06.2018 07:36 10,3 C 10,6 C 10,0 C 91 % 1025,4 hPa 0,0 l/m 0 min 0 min 49 W/m 4,5 km/h (1 Bft) 97,87 %
23.06.2018 07:38 10,3 C 10,6 C 10,0 C 91 % 1025,4 hPa 0,0 l/m 0 min 0 min 47 W/m 6,8 km/h (2 Bft) 100,00 %
23.06.2018 07:40 10,3 C 10,6 C 10,0 C 91 % 1025,4 hPa 0,0 l/m 0 min 0 min 50 W/m 2,3 km/h (1 Bft) 100,00 %
23.06.2018 07:42 10,4 C 10,6 C 10,0 C 91 % 1025,3 hPa 0,0 l/m 0 min 0 min 54 W/m 4,5 km/h (1 Bft) 100,00 %
23.06.2018 07:44 10,4 C 10,6 C 10,0 C 91 % 1025,3 hPa 0,0 l/m 0 min 0 min 55 W/m 6,8 km/h (2 Bft) 100,00 %
23.06.2018 07:46 10,4 C 10,6 C 10,0 C 91 % 1025,3 hPa 0,0 l/m 0 min 0 min 55 W/m 13,5 km/h (3 Bft) 97,87 %
23.06.2018 07:48 10,4 C 10,6 C 10,0 C 91 % 1025,3 hPa 0,0 l/m 0 min 0 min 58 W/m 6,8 km/h (2 Bft) 100,00 %
23.06.2018 07:50 10,5 C 10,6 C 10,0 C 91 % 1025,3 hPa 0,0 l/m 0 min 0 min 64 W/m 2,3 km/h (1 Bft) 100,00 %
23.06.2018 07:52 10,5 C 10,6 C 10,0 C 91 % 1025,3 hPa 0,0 l/m 0 min 0 min 69 W/m 2,3 km/h (1 Bft) 100,00 %
23.06.2018 07:54 10,6 C 10,6 C 10,0 C 90 % 1025,3 hPa 0,0 l/m 0 min 0 min 69 W/m 4,5 km/h (1 Bft) 100,00 %
23.06.2018 07:56 10,6 C 10,6 C 10,0 C 90 % 1025,3 hPa 0,0 l/m 0 min 0 min 61 W/m 6,8 km/h (2 Bft) 100,00 %
23.06.2018 07:58 10,6 C 10,6 C 10,0 C 90 % 1025,4 hPa 0,0 l/m 0 min 0 min 54 W/m 9,0 km/h (2 Bft) 100,00 %
23.06.2018 08:00 10,6 C 11,1 C 10,0 C 90 % 1025,3 hPa 0,0 l/m 0 min 0 min 55 W/m 0,0 km/h (0 Bft) 100,00 %
23.06.2018 08:02 10,7 C 11,1 C 10,6 C 90 % 1025,4 hPa 0,0 l/m 0 min 0 min 57 W/m 6,8 km/h (2 Bft) 100,00 %
23.06.2018 08:04 10,7 C 11,1 C 10,6 C 90 % 1025,4 hPa 0,0 l/m 0 min 0 min 56 W/m 6,8 km/h (2 Bft) 100,00 %
23.06.2018 08:06 10,7 C 11,1 C 10,6 C 90 % 1025,4 hPa 0,0 l/m 0 min 0 min 56 W/m 2,3 km/h (1 Bft) 100,00 %
23.06.2018 08:08 10,7 C 11,1 C 10,6 C 90 % 1025,3 hPa 0,0 l/m 0 min 0 min 68 W/m 0,0 km/h (0 Bft) 100,00 %
23.06.2018 08:10 10,7 C 11,1 C 10,6 C 90 % 1025,3 hPa 0,0 l/m 0 min 0 min 78 W/m 0,0 km/h (0 Bft) 100,00 %
23.06.2018 08:12 10,8 C 11,1 C 10,6 C 90 % 1025,4 hPa 0,0 l/m 0 min 0 min 73 W/m 4,5 km/h (1 Bft) 100,00 %
23.06.2018 08:14 10,8 C 11,1 C 10,6 C 90 % 1025,4 hPa 0,0 l/m 0 min 0 min 68 W/m 0,0 km/h (0 Bft) 100,00 %
23.06.2018 08:16 10,8 C 11,1 C 10,6 C 90 % 1025,5 hPa 0,0 l/m 0 min 0 min 62 W/m 2,3 km/h (1 Bft) 100,00 %
23.06.2018 08:18 10,9 C 11,1 C 10,6 C 90 % 1025,4 hPa 0,0 l/m 0 min 0 min 66 W/m 4,5 km/h (1 Bft) 100,00 %
23.06.2018 08:20 10,9 C 11,1 C 10,6 C 90 % 1025,5 hPa 0,0 l/m 0 min 0 min 73 W/m 2,3 km/h (1 Bft) 100,00 %
23.06.2018 08:22 10,9 C 11,1 C 10,6 C 90 % 1025,4 hPa 0,0 l/m 0 min 0 min 72 W/m 2,3 km/h (1 Bft) 100,00 %
23.06.2018 08:24 10,9 C 11,7 C 10,6 C 90 % 1025,4 hPa 0,0 l/m 0 min 0 min 90 W/m 4,5 km/h (1 Bft) 100,00 %
23.06.2018 08:26 11,0 C 11,7 C 10,6 C 90 % 1025,5 hPa 0,0 l/m 0 min 0 min 87 W/m 9,0 km/h (2 Bft) 100,00 %
23.06.2018 08:28 11,0 C 11,7 C 10,6 C 90 % 1025,5 hPa 0,0 l/m 0 min 0 min 75 W/m 2,3 km/h (1 Bft) 100,00 %
23.06.2018 08:30 11,1 C 11,1 C 10,6 C 90 % 1025,5 hPa 0,0 l/m 0 min 0 min 78 W/m 4,5 km/h (1 Bft) 97,87 %
23.06.2018 08:32 11,1 C 11,7 C 10,6 C 90 % 1025,5 hPa 0,0 l/m 0 min 0 min 94 W/m 4,5 km/h (1 Bft) 97,87 %
23.06.2018 08:34 11,1 C 11,7 C 10,6 C 90 % 1025,5 hPa 0,0 l/m 0 min 0 min 115 W/m 2,3 km/h (1 Bft) 97,87 %
23.06.2018 08:36 11,2 C 11,7 C 10,6 C 90 % 1025,4 hPa 0,0 l/m 0 min 0 min 118 W/m 4,5 km/h (1 Bft) 97,87 %
23.06.2018 08:38 11,2 C 11,7 C 11,1 C 90 % 1025,4 hPa 0,0 l/m 0 min 0 min 109 W/m 0,0 km/h (0 Bft) 97,83 %
23.06.2018 08:40 11,2 C 11,7 C 11,1 C 90 % 1025,5 hPa 0,0 l/m 0 min 0 min 103 W/m 6,8 km/h (2 Bft) 97,87 %
23.06.2018 08:42 11,3 C 11,7 C 11,1 C 90 % 1025,4 hPa 0,0 l/m 0 min 0 min 101 W/m 4,5 km/h (1 Bft) 97,87 %
23.06.2018 08:44 11,3 C 11,7 C 11,1 C 90 % 1025,4 hPa 0,0 l/m 0 min 0 min 104 W/m 4,5 km/h (1 Bft) 100,00 %
23.06.2018 08:46 11,3 C 11,7 C 11,1 C 90 % 1025,3 hPa 0,0 l/m 0 min 0 min 104 W/m 4,5 km/h (1 Bft) 97,87 %
23.06.2018 08:48 11,4 C 11,7 C 11,1 C 90 % 1025,4 hPa 0,0 l/m 0 min 0 min 112 W/m 6,8 km/h (2 Bft) 97,87 %
23.06.2018 08:50 11,4 C 11,7 C 11,1 C 89 % 1025,4 hPa 0,0 l/m 0 min 0 min 103 W/m 15,8 km/h (3 Bft) 100,00 %
23.06.2018 08:52 11,4 C 11,7 C 11,1 C 89 % 1025,3 hPa 0,0 l/m 0 min 0 min 111 W/m 4,5 km/h (1 Bft) 97,87 %
23.06.2018 08:54 11,5 C 11,7 C 11,1 C 89 % 1025,4 hPa 0,0 l/m 0 min 0 min 121 W/m 6,8 km/h (2 Bft) 93,62 %
23.06.2018 08:56 11,5 C 11,7 C 11,1 C 89 % 1025,4 hPa 0,0 l/m 0 min 0 min 129 W/m 4,5 km/h (1 Bft) 97,87 %
23.06.2018 08:58 11,5 C 12,2 C 11,1 C 89 % 1025,4 hPa 0,0 l/m 0 min 0 min 159 W/m 6,8 km/h (2 Bft) 97,87 %
23.06.2018 09:00 11,6 C 12,2 C 11,1 C 89 % 1025,4 hPa 0,0 l/m 0 min 0 min 203 W/m 4,5 km/h (1 Bft) 97,87 %
23.06.2018 09:02 11,6 C 12,2 C 11,1 C 89 % 1025,4 hPa 0,0 l/m 0 min 0 min 195 W/m 6,8 km/h (2 Bft) 97,96 %
23.06.2018 09:04 11,6 C 12,8 C 11,1 C 89 % 1025,3 hPa 0,0 l/m 0 min 0 min 183 W/m 2,3 km/h (1 Bft) 97,87 %
23.06.2018 09:06 11,7 C 12,8 C 11,7 C 89 % 1025,4 hPa 0,0 l/m 0 min 0 min 200 W/m 6,8 km/h (2 Bft) 97,83 %
23.06.2018 09:08 11,7 C 13,9 C 11,7 C 90 % 1025,4 hPa 0,0 l/m 2 min 0 min 468 W/m 6,8 km/h (2 Bft) 97,87 %
23.06.2018 09:10 11,8 C 14,4 C 11,7 C 90 % 1025,4 hPa 0,0 l/m 2 min 0 min 385 W/m 4,5 km/h (1 Bft) 97,87 %
23.06.2018 09:12 11,8 C 14,4 C 12,2 C 90 % 1025,4 hPa 0,0 l/m 2 min 0 min 284 W/m 2,3 km/h (1 Bft) 93,62 %
23.06.2018 09:14 11,9 C 13,9 C 12,2 C 90 % 1025,5 hPa 0,0 l/m 0 min 0 min 261 W/m 9,0 km/h (2 Bft) 95,74 %
23.06.2018 09:16 12,0 C 14,4 C 12,2 C 90 % 1025,4 hPa 0,0 l/m 2 min 0 min 312 W/m 9,0 km/h (2 Bft) 95,74 %
23.06.2018 09:18 12,1 C 14,4 C 12,2 C 90 % 1025,4 hPa 0,0 l/m 2 min 0 min 302 W/m 4,5 km/h (1 Bft) 95,65 %
23.06.2018 09:20 12,2 C 14,4 C 12,2 C 90 % 1025,5 hPa 0,0 l/m 0 min 0 min 272 W/m 4,5 km/h (1 Bft) 95,74 %
23.06.2018 09:22 12,2 C 13,9 C 12,2 C 90 % 1025,5 hPa 0,0 l/m 0 min 0 min 271 W/m 9,0 km/h (2 Bft) 95,74 %
23.06.2018 09:24 12,3 C 13,9 C 12,2 C 89 % 1025,4 hPa 0,0 l/m 0 min 0 min 282 W/m 11,3 km/h (2 Bft) 93,62 %
23.06.2018 09:26 12,4 C 14,4 C 12,2 C 89 % 1025,4 hPa 0,0 l/m 0 min 0 min 295 W/m 4,5 km/h (1 Bft) 97,87 %
23.06.2018 09:28 12,5 C 14,4 C 12,2 C 89 % 1025,5 hPa 0,0 l/m 2 min 0 min 301 W/m 11,3 km/h (2 Bft) 93,48 %
23.06.2018 09:30 12,6 C 14,4 C 12,2 C 88 % 1025,5 hPa 0,0 l/m 0 min 0 min 298 W/m 9,0 km/h (2 Bft) 91,49 %
23.06.2018 09:32 12,7 C 14,4 C 12,2 C 88 % 1025,5 hPa 0,0 l/m 0 min 0 min 288 W/m 9,0 km/h (2 Bft) 93,62 %
23.06.2018 09:34 12,7 C 14,4 C 12,8 C 88 % 1025,5 hPa 0,0 l/m 0 min 0 min 292 W/m 11,3 km/h (2 Bft) 91,49 %
23.06.2018 09:36 12,8 C 14,4 C 12,8 C 87 % 1025,4 hPa 0,0 l/m 2 min 0 min 317 W/m 6,8 km/h (2 Bft) 88,57 %
23.06.2018 09:38 12,9 C 15,0 C 12,8 C 87 % 1025,4 hPa 0,0 l/m 2 min 0 min 320 W/m 9,0 km/h (2 Bft) 95,74 %
23.06.2018 09:40 13,0 C 15,0 C 12,8 C 87 % 1025,4 hPa 0,0 l/m 2 min 0 min 313 W/m 9,0 km/h (2 Bft) 93,62 %
23.06.2018 09:42 13,1 C 15,0 C 12,8 C 87 % 1025,4 hPa 0,0 l/m 0 min 0 min 305 W/m 9,0 km/h (2 Bft) 91,49 %
23.06.2018 09:44 13,1 C 15,0 C 12,8 C 86 % 1025,4 hPa 0,0 l/m 0 min 0 min 296 W/m 11,3 km/h (2 Bft) 93,48 %
23.06.2018 09:46 13,2 C 15,0 C 12,8 C 86 % 1025,4 hPa 0,0 l/m 0 min 0 min 268 W/m 9,0 km/h (2 Bft) 91,49 %
23.06.2018 09:48 13,3 C 15,0 C 12,8 C 86 % 1025,3 hPa 0,0 l/m 0 min 0 min 297 W/m 9,0 km/h (2 Bft) 91,49 %
23.06.2018 09:50 13,4 C 15,0 C 13,3 C 86 % 1025,4 hPa 0,0 l/m 2 min 0 min 330 W/m 9,0 km/h (2 Bft) 94,92 %
23.06.2018 09:52 13,4 C 15,0 C 13,3 C 86 % 1025,4 hPa 0,0 l/m 0 min 0 min 320 W/m 6,8 km/h (2 Bft) 97,14 %
23.06.2018 09:54 13,6 C 15,6 C 13,3 C 85 % 1025,4 hPa 0,0 l/m 0 min 0 min 300 W/m 6,8 km/h (2 Bft) 95,74 %
23.06.2018 09:56 13,6 C 15,0 C 13,3 C 85 % 1025,4 hPa 0,0 l/m 0 min 0 min 250 W/m 15,8 km/h (3 Bft) 93,48 %
23.06.2018 09:58 13,7 C 15,0 C 12,8 C 84 % 1025,4 hPa 0,0 l/m 0 min 0 min 168 W/m 9,0 km/h (2 Bft) 97,87 %
23.06.2018 10:00 13,7 C 14,4 C 12,8 C 84 % 1025,4 hPa 0,0 l/m 0 min 0 min 136 W/m 20,3 km/h (4 Bft) 97,87 %
23.06.2018 10:02 13,8 C 14,4 C 12,8 C 84 % 1025,4 hPa 0,0 l/m 0 min 0 min 166 W/m 6,8 km/h (2 Bft) 97,87 %
23.06.2018 10:04 13,8 C 14,4 C 12,8 C 83 % 1025,3 hPa 0,0 l/m 0 min 0 min 268 W/m 11,3 km/h (2 Bft) 100,00 %
23.06.2018 10:06 13,8 C 15,0 C 12,8 C 83 % 1025,3 hPa 0,0 l/m 0 min 0 min 329 W/m 9,0 km/h (2 Bft) 95,74 %
23.06.2018 10:08 13,8 C 15,6 C 13,3 C 83 % 1025,3 hPa 0,0 l/m 2 min 0 min 374 W/m 11,3 km/h (2 Bft) 95,65 %
23.06.2018 10:10 13,9 C 15,6 C 13,3 C 83 % 1025,3 hPa 0,0 l/m 2 min 0 min 402 W/m 11,3 km/h (2 Bft) 95,74 %
23.06.2018 10:12 13,9 C 16,1 C 13,3 C 83 % 1025,2 hPa 0,0 l/m 2 min 0 min 415 W/m 11,3 km/h (2 Bft) 97,87 %
23.06.2018 10:14 14,1 C 16,1 C 13,3 C 83 % 1025,3 hPa 0,0 l/m 2 min 0 min 467 W/m 6,8 km/h (2 Bft) 100,00 %
23.06.2018 10:16 14,2 C 16,7 C 13,9 C 83 % 1025,2 hPa 0,0 l/m 2 min 0 min 567 W/m 4,5 km/h (1 Bft) 100,00 %
23.06.2018 10:18 14,2 C 17,2 C 13,9 C 83 % 1025,2 hPa 0,0 l/m 2 min 0 min 471 W/m 9,0 km/h (2 Bft) 100,00 %
23.06.2018 10:20 14,2 C 16,7 C 13,9 C 83 % 1025,2 hPa 0,0 l/m 2 min 0 min 359 W/m 9,0 km/h (2 Bft) 97,87 %
23.06.2018 10:22 14,3 C 16,1 C 13,9 C 83 % 1025,2 hPa 0,0 l/m 2 min 0 min 370 W/m 9,0 km/h (2 Bft) 97,87 %
23.06.2018 10:24 14,4 C 16,1 C 13,9 C 82 % 1025,2 hPa 0,0 l/m 2 min 0 min 364 W/m 6,8 km/h (2 Bft) 100,00 %
23.06.2018 10:26 14,5 C 16,1 C 13,9 C 82 % 1025,2 hPa 0,0 l/m 2 min 0 min 379 W/m 6,8 km/h (2 Bft) 100,00 %
23.06.2018 10:28 14,6 C 16,1 C 13,9 C 82 % 1025,2 hPa 0,0 l/m 0 min 0 min 268 W/m 6,8 km/h (2 Bft) 100,00 %
23.06.2018 10:30 14,6 C 15,6 C 13,9 C 81 % 1025,2 hPa 0,0 l/m 0 min 0 min 167 W/m 9,0 km/h (2 Bft) 100,00 %
23.06.2018 10:32 14,6 C 15,6 C 13,9 C 81 % 1025,2 hPa 0,0 l/m 0 min 0 min 105 W/m 6,8 km/h (2 Bft) 97,83 %
23.06.2018 10:34 14,7 C 15,0 C 13,3 C 81 % 1025,2 hPa 0,0 l/m 0 min 0 min 75 W/m 6,8 km/h (2 Bft) 100,00 %
23.06.2018 10:36 14,6 C 14,4 C 13,3 C 80 % 1025,3 hPa 0,0 l/m 0 min 0 min 81 W/m 11,3 km/h (2 Bft) 100,00 %
23.06.2018 10:38 14,6 C 14,4 C 13,3 C 80 % 1025,2 hPa 0,0 l/m 0 min 0 min 111 W/m 9,0 km/h (2 Bft) 100,00 %
23.06.2018 10:40 14,5 C 14,4 C 13,3 C 80 % 1025,2 hPa 0,0 l/m 0 min 0 min 155 W/m 13,5 km/h (3 Bft) 100,00 %
23.06.2018 10:42 14,4 C 14,4 C 13,3 C 80 % 1025,3 hPa 0,0 l/m 0 min 0 min 151 W/m 9,0 km/h (2 Bft) 100,00 %
23.06.2018 10:44 14,4 C 14,4 C 13,3 C 80 % 1025,3 hPa 0,0 l/m 0 min 0 min 126 W/m 9,0 km/h (2 Bft) 100,00 %
23.06.2018 10:46 14,4 C 14,4 C 13,3 C 80 % 1025,4 hPa 0,0 l/m 0 min 0 min 146 W/m 13,5 km/h (3 Bft) 97,83 %
23.06.2018 10:48 14,4 C 14,4 C 13,3 C 80 % 1025,3 hPa 0,0 l/m 0 min 0 min 209 W/m 11,3 km/h (2 Bft) 100,00 %
23.06.2018 10:50 14,4 C 14,4 C 13,3 C 80 % 1025,3 hPa 0,0 l/m 0 min 0 min 235 W/m 13,5 km/h (3 Bft) 100,00 %
23.06.2018 10:52 14,3 C 15,0 C 13,3 C 80 % 1025,2 hPa 0,0 l/m 0 min 0 min 270 W/m 13,5 km/h (3 Bft) 95,74 %
23.06.2018 10:54 14,4 C 15,6 C 13,3 C 80 % 1025,2 hPa 0,0 l/m 0 min 0 min 361 W/m 6,8 km/h (2 Bft) 100,00 %
23.06.2018 10:56 14,4 C 16,1 C 13,9 C 81 % 1025,2 hPa 0,0 l/m 2 min 0 min 386 W/m 13,5 km/h (3 Bft) 100,00 %
23.06.2018 10:58 14,4 C 16,1 C 13,9 C 80 % 1025,2 hPa 0,0 l/m 0 min 0 min 345 W/m 11,3 km/h (2 Bft) 100,00 %
23.06.2018 11:00 14,5 C 16,1 C 13,9 C 80 % 1025,2 hPa 0,0 l/m 0 min 0 min 291 W/m 13,5 km/h (3 Bft) 100,00 %
23.06.2018 11:02 14,6 C 16,1 C 13,9 C 80 % 1025,2 hPa 0,0 l/m 0 min 0 min 234 W/m 9,0 km/h (2 Bft) 97,92 %
23.06.2018 11:04 14,6 C 15,6 C 13,9 C 80 % 1025,2 hPa 0,0 l/m 0 min 0 min 200 W/m 13,5 km/h (3 Bft) 100,00 %
23.06.2018 11:06 14,6 C 15,6 C 13,9 C 80 % 1025,1 hPa 0,0 l/m 0 min 0 min 179 W/m 11,3 km/h (2 Bft) 100,00 %
23.06.2018 11:08 14,6 C 15,0 C 13,3 C 79 % 1025,1 hPa 0,0 l/m 0 min 0 min 159 W/m 18,0 km/h (3 Bft) 100,00 %
23.06.2018 11:10 14,6 C 15,0 C 13,9 C 79 % 1025,1 hPa 0,0 l/m 0 min 0 min 140 W/m 6,8 km/h (2 Bft) 100,00 %
23.06.2018 11:12 14,6 C 15,0 C 13,9 C 79 % 1025,1 hPa 0,0 l/m 0 min 0 min 134 W/m 9,0 km/h (2 Bft) 100,00 %
23.06.2018 11:14 14,7 C 15,0 C 13,9 C 80 % 1025,1 hPa 0,0 l/m 0 min 0 min 126 W/m 4,5 km/h (1 Bft) 100,00 %
23.06.2018 11:16 14,7 C 15,0 C 13,9 C 80 % 1025,2 hPa 0,0 l/m 0 min 0 min 111 W/m 13,5 km/h (3 Bft) 100,00 %
23.06.2018 11:18 14,6 C 14,4 C 13,3 C 79 % 1025,1 hPa 0,0 l/m 0 min 0 min 93 W/m 13,5 km/h (3 Bft) 100,00 %
23.06.2018 11:20 14,6 C 14,4 C 13,3 C 79 % 1025,1 hPa 0,0 l/m 0 min 0 min 84 W/m 11,3 km/h (2 Bft) 100,00 %
23.06.2018 11:22 14,6 C 13,3 C 13,3 C 79 % 1025,2 hPa 0,0 l/m 0 min 2 min 94 W/m 9,0 km/h (2 Bft) 100,00 %
23.06.2018 11:24 14,6 C 13,3 C 12,8 C 80 % 1025,2 hPa 0,0 l/m 0 min 2 min 109 W/m 13,5 km/h (3 Bft) 100,00 %
23.06.2018 11:26 14,5 C 12,8 C 12,8 C 80 % 1025,2 hPa 0,0 l/m 0 min 0 min 108 W/m 11,3 km/h (2 Bft) 100,00 %
23.06.2018 11:28 14,5 C 13,3 C 12,8 C 80 % 1025,2 hPa 0,0 l/m 0 min 0 min 112 W/m 13,5 km/h (3 Bft) 100,00 %
23.06.2018 11:30 14,4 C 13,3 C 12,8 C 80 % 1025,2 hPa 0,0 l/m 0 min 0 min 119 W/m 13,5 km/h (3 Bft) 100,00 %
23.06.2018 11:32 14,4 C 13,3 C 12,8 C 81 % 1025,2 hPa 0,0 l/m 0 min 0 min 128 W/m 11,3 km/h (2 Bft) 100,00 %
23.06.2018 11:34 14,4 C 13,9 C 12,8 C 81 % 1025,3 hPa 0,0 l/m 0 min 0 min 126 W/m 11,3 km/h (2 Bft) 97,87 %
23.06.2018 11:36 14,3 C 13,9 C 12,8 C 82 % 1025,3 hPa 0,0 l/m 0 min 0 min 125 W/m 9,0 km/h (2 Bft) 94,44 %
23.06.2018 11:38 14,3 C 13,9 C 12,8 C 82 % 1025,3 hPa 0,0 l/m 0 min 0 min 148 W/m 18,0 km/h (3 Bft) 97,87 %
23.06.2018 11:40 14,3 C 13,9 C 12,8 C 82 % 1025,3 hPa 0,0 l/m 0 min 0 min 175 W/m 4,5 km/h (1 Bft) 97,87 %
23.06.2018 11:42 14,2 C 13,9 C 12,8 C 83 % 1025,2 hPa 0,0 l/m 0 min 0 min 191 W/m 6,8 km/h (2 Bft) 97,87 %
23.06.2018 11:44 14,3 C 13,9 C 12,8 C 83 % 1025,1 hPa 0,0 l/m 0 min 0 min 193 W/m 6,8 km/h (2 Bft) 97,87 %
23.06.2018 11:46 14,2 C 13,9 C 12,8 C 84 % 1025,3 hPa 0,0 l/m 0 min 0 min 199 W/m 9,0 km/h (2 Bft) 97,96 %
23.06.2018 11:48 14,2 C 14,4 C 13,3 C 84 % 1025,3 hPa 0,0 l/m 0 min 0 min 218 W/m 6,8 km/h (2 Bft) 97,87 %
23.06.2018 11:50 14,2 C 15,0 C 13,3 C 84 % 1025,2 hPa 0,0 l/m 0 min 0 min 273 W/m 9,0 km/h (2 Bft) 97,92 %
23.06.2018 11:52 14,2 C 15,0 C 13,3 C 84 % 1025,2 hPa 0,0 l/m 0 min 0 min 294 W/m 9,0 km/h (2 Bft) 93,48 %
23.06.2018 11:54 14,2 C 15,6 C 13,3 C 83 % 1025,2 hPa 0,0 l/m 0 min 0 min 285 W/m 9,0 km/h (2 Bft) 97,87 %
23.06.2018 11:56 14,3 C 15,6 C 13,9 C 83 % 1025,2 hPa 0,0 l/m 0 min 0 min 277 W/m 9,0 km/h (2 Bft) 97,87 %
23.06.2018 11:58 14,3 C 15,6 C 13,9 C 83 % 1025,2 hPa 0,0 l/m 0 min 0 min 279 W/m 11,3 km/h (2 Bft) 97,87 %
23.06.2018 12:00 14,3 C 15,6 C 13,9 C 83 % 1025,2 hPa 0,0 l/m 0 min 0 min 269 W/m 6,8 km/h (2 Bft) 95,74 %
23.06.2018 12:02 14,4 C 15,6 C 13,9 C 83 % 1025,1 hPa 0,0 l/m 0 min 0 min 265 W/m 9,0 km/h (2 Bft) 97,87 %
23.06.2018 12:04 14,4 C 16,1 C 13,9 C 83 % 1025,2 hPa 0,0 l/m 0 min 0 min 252 W/m 4,5 km/h (1 Bft) 97,83 %
23.06.2018 12:08 14,6 C 15,6 C 13,9 C 83 % 1025,2 hPa 0,0 l/m 0 min 0 min 198 W/m 9,0 km/h (2 Bft) 97,83 %
23.06.2018 12:10 14,6 C 15,6 C 13,9 C 82 % 1025,3 hPa 0,0 l/m 0 min 0 min 130 W/m 9,0 km/h (2 Bft) 93,48 %
23.06.2018 12:12 14,6 C 15,0 C 13,9 C 82 % 1025,2 hPa 0,0 l/m 0 min 0 min 126 W/m 6,8 km/h (2 Bft) 95,74 %
23.06.2018 12:14 14,6 C 15,0 C 13,9 C 81 % 1025,2 hPa 0,0 l/m 0 min 0 min 144 W/m 6,8 km/h (2 Bft) 97,87 %
23.06.2018 12:16 14,7 C 15,0 C 13,9 C 81 % 1025,3 hPa 0,0 l/m 0 min 0 min 139 W/m 6,8 km/h (2 Bft) 95,74 %
23.06.2018 12:18 14,7 C 15,0 C 13,9 C 80 % 1025,3 hPa 0,0 l/m 0 min 0 min 122 W/m 11,3 km/h (2 Bft) 97,87 %
23.06.2018 12:20 14,7 C 15,0 C 13,9 C 80 % 1025,3 hPa 0,0 l/m 0 min 0 min 110 W/m 9,0 km/h (2 Bft) 97,87 %
23.06.2018 12:22 14,7 C 14,4 C 13,3 C 80 % 1025,3 hPa 0,0 l/m 0 min 0 min 102 W/m 13,5 km/h (3 Bft) 97,83 %
23.06.2018 12:24 14,7 C 14,4 C 13,3 C 80 % 1025,4 hPa 0,0 l/m 0 min 0 min 120 W/m 9,0 km/h (2 Bft) 97,87 %
23.06.2018 12:26 14,7 C 14,4 C 13,3 C 80 % 1025,3 hPa 0,0 l/m 0 min 0 min 137 W/m 13,5 km/h (3 Bft) 95,74 %
23.06.2018 12:28 14,7 C 14,4 C 13,3 C 80 % 1025,4 hPa 0,0 l/m 0 min 0 min 143 W/m 11,3 km/h (2 Bft) 91,49 %
23.06.2018 12:30 14,7 C 15,0 C 13,3 C 80 % 1025,4 hPa 0,0 l/m 0 min 0 min 150 W/m 9,0 km/h (2 Bft) 95,74 %
23.06.2018 12:32 14,7 C 15,0 C 13,9 C 80 % 1025,4 hPa 0,0 l/m 0 min 0 min 154 W/m 2,3 km/h (1 Bft) 93,62 %
23.06.2018 12:34 14,7 C 15,0 C 13,9 C 80 % 1025,4 hPa 0,0 l/m 0 min 0 min 148 W/m 9,0 km/h (2 Bft) 93,48 %
23.06.2018 12:36 14,7 C 15,0 C 13,9 C 80 % 1025,3 hPa 0,0 l/m 0 min 0 min 143 W/m 9,0 km/h (2 Bft) 95,74 %
23.06.2018 12:38 14,7 C 15,0 C 13,9 C 80 % 1025,3 hPa 0,0 l/m 0 min 0 min 138 W/m 6,8 km/h (2 Bft) 95,74 %
23.06.2018 12:40 14,7 C 15,0 C 13,9 C 80 % 1025,4 hPa 0,0 l/m 0 min 0 min 129 W/m 11,3 km/h (2 Bft) 95,74 %
23.06.2018 12:42 14,7 C 15,0 C 13,9 C 80 % 1025,4 hPa 0,0 l/m 0 min 0 min 126 W/m 9,0 km/h (2 Bft) 95,74 %
23.06.2018 12:44 14,7 C 15,0 C 13,9 C 80 % 1025,4 hPa 0,0 l/m 0 min 0 min 129 W/m 4,5 km/h (1 Bft) 95,74 %
23.06.2018 12:46 14,7 C 15,0 C 13,9 C 80 % 1025,4 hPa 0,0 l/m 0 min 0 min 117 W/m 6,8 km/h (2 Bft) 93,48 %
23.06.2018 12:48 14,7 C 15,0 C 13,9 C 80 % 1025,5 hPa 0,0 l/m 0 min 0 min 101 W/m 9,0 km/h (2 Bft) 95,65 %
23.06.2018 12:50 14,7 C 14,4 C 13,3 C 80 % 1025,5 hPa 0,0 l/m 0 min 0 min 92 W/m 11,3 km/h (2 Bft) 95,74 %
23.06.2018 12:52 14,7 C 14,4 C 13,3 C 80 % 1025,5 hPa 0,0 l/m 0 min 0 min 78 W/m 15,8 km/h (3 Bft) 93,62 %
23.06.2018 12:54 14,7 C 13,9 C 13,3 C 80 % 1025,5 hPa 0,0 l/m 0 min 2 min 80 W/m 6,8 km/h (2 Bft) 95,74 %
23.06.2018 12:56 14,7 C 13,3 C 12,8 C 81 % 1025,5 hPa 0,0 l/m 0 min 2 min 90 W/m 9,0 km/h (2 Bft) 95,74 %
23.06.2018 12:58 14,7 C 13,3 C 12,8 C 81 % 1025,4 hPa 0,0 l/m 0 min 0 min 102 W/m 6,8 km/h (2 Bft) 95,65 %
23.06.2018 13:00 14,7 C 13,3 C 12,8 C 82 % 1025,4 hPa 0,0 l/m 0 min 0 min 116 W/m 6,8 km/h (2 Bft) 95,74 %
23.06.2018 13:02 14,7 C 13,3 C 12,8 C 82 % 1025,4 hPa 0,0 l/m 0 min 0 min 139 W/m 6,8 km/h (2 Bft) 95,74 %
23.06.2018 13:04 14,6 C 13,9 C 12,8 C 83 % 1025,5 hPa 0,0 l/m 0 min 0 min 164 W/m 4,5 km/h (1 Bft) 95,74 %
23.06.2018 13:06 14,6 C 13,9 C 12,8 C 83 % 1025,4 hPa 0,0 l/m 0 min 0 min 180 W/m 4,5 km/h (1 Bft) 95,74 %
23.06.2018 13:08 14,6 C 13,9 C 12,8 C 84 % 1025,4 hPa 0,0 l/m 0 min 0 min 195 W/m 4,5 km/h (1 Bft) 95,65 %
23.06.2018 13:10 14,6 C 14,4 C 12,8 C 84 % 1025,4 hPa 0,0 l/m 0 min 0 min 202 W/m 2,3 km/h (1 Bft) 95,74 %
23.06.2018 13:12 14,6 C 14,4 C 13,3 C 84 % 1025,4 hPa 0,0 l/m 0 min 0 min 213 W/m 4,5 km/h (1 Bft) 95,74 %
23.06.2018 13:14 14,6 C 14,4 C 13,3 C 84 % 1025,4 hPa 0,0 l/m 0 min 0 min 230 W/m 6,8 km/h (2 Bft) 95,74 %
23.06.2018 13:16 14,6 C 15,0 C 13,3 C 84 % 1025,4 hPa 0,0 l/m 0 min 0 min 243 W/m 4,5 km/h (1 Bft) 91,49 %
23.06.2018 13:18 14,6 C 15,0 C 13,3 C 84 % 1025,4 hPa 0,0 l/m 0 min 0 min 223 W/m 9,0 km/h (2 Bft) 97,87 %
23.06.2018 13:20 14,5 C 15,0 C 13,3 C 84 % 1025,4 hPa 0,0 l/m 0 min 0 min 179 W/m 6,8 km/h (2 Bft) 100,00 %
23.06.2018 13:22 14,5 C 15,0 C 13,3 C 84 % 1025,4 hPa 0,0 l/m 0 min 0 min 132 W/m 6,8 km/h (2 Bft) 100,00 %
23.06.2018 13:24 14,5 C 15,0 C 13,3 C 84 % 1025,3 hPa 0,0 l/m 0 min 0 min 109 W/m 6,8 km/h (2 Bft) 100,00 %
23.06.2018 13:26 14,5 C 14,4 C 13,3 C 84 % 1025,3 hPa 0,0 l/m 0 min 0 min 99 W/m 9,0 km/h (2 Bft) 97,87 %
23.06.2018 13:28 14,5 C 14,4 C 13,3 C 83 % 1025,3 hPa 0,0 l/m 0 min 0 min 102 W/m 4,5 km/h (1 Bft) 95,74 %
23.06.2018 13:30 14,5 C 14,4 C 13,3 C 83 % 1025,3 hPa 0,0 l/m 0 min 0 min 105 W/m 4,5 km/h (1 Bft) 100,00 %
23.06.2018 13:32 14,4 C 14,4 C 13,3 C 83 % 1025,3 hPa 0,0 l/m 0 min 0 min 101 W/m 2,3 km/h (1 Bft) 100,00 %
23.06.2018 13:34 14,4 C 14,4 C 13,3 C 83 % 1025,3 hPa 0,0 l/m 0 min 0 min 97 W/m 4,5 km/h (1 Bft) 100,00 %
23.06.2018 13:36 14,4 C 14,4 C 13,3 C 83 % 1025,4 hPa 0,0 l/m 0 min 0 min 89 W/m 9,0 km/h (2 Bft) 97,83 %
23.06.2018 13:38 14,4 C 14,4 C 13,3 C 83 % 1025,3 hPa 0,0 l/m 0 min 0 min 84 W/m 9,0 km/h (2 Bft) 100,00 %
23.06.2018 13:40 14,4 C 14,4 C 13,3 C 83 % 1025,4 hPa 0,0 l/m 0 min 0 min 78 W/m 4,5 km/h (1 Bft) 100,00 %
23.06.2018 13:42 14,4 C 14,4 C 13,3 C 83 % 1025,4 hPa 0,0 l/m 0 min 0 min 74 W/m 4,5 km/h (1 Bft) 100,00 %
23.06.2018 13:44 14,4 C 13,9 C 13,3 C 83 % 1025,4 hPa 0,0 l/m 0 min 0 min 72 W/m 6,8 km/h (2 Bft) 93,62 %
23.06.2018 13:46 14,4 C 13,9 C 13,3 C 83 % 1025,4 hPa 0,0 l/m 0 min 0 min 71 W/m 4,5 km/h (1 Bft) 100,00 %
23.06.2018 13:48 14,4 C 13,9 C 12,8 C 84 % 1025,4 hPa 0,0 l/m 0 min 0 min 74 W/m 4,5 km/h (1 Bft) 100,00 %
23.06.2018 13:50 14,4 C 13,9 C 12,8 C 84 % 1025,4 hPa 0,0 l/m 0 min 0 min 82 W/m 2,3 km/h (1 Bft) 100,00 %
23.06.2018 13:52 14,4 C 13,9 C 13,3 C 84 % 1025,4 hPa 0,0 l/m 0 min 0 min 94 W/m 4,5 km/h (1 Bft) 100,00 %
23.06.2018 13:54 14,4 C 13,9 C 13,3 C 84 % 1025,4 hPa 0,0 l/m 0 min 0 min 102 W/m 0,0 km/h (0 Bft) 100,00 %
23.06.2018 13:56 14,4 C 13,9 C 13,3 C 84 % 1025,4 hPa 0,0 l/m 0 min 0 min 113 W/m 2,3 km/h (1 Bft) 100,00 %
23.06.2018 13:58 14,4 C 14,4 C 13,3 C 84 % 1025,4 hPa 0,0 l/m 0 min 0 min 127 W/m 6,8 km/h (2 Bft) 100,00 %
23.06.2018 14:00 14,4 C 14,4 C 13,3 C 84 % 1025,4 hPa 0,0 l/m 0 min 0 min 141 W/m 6,8 km/h (2 Bft) 100,00 %
23.06.2018 14:02 14,4 C 14,4 C 13,3 C 84 % 1025,3 hPa 0,0 l/m 0 min 0 min 144 W/m 4,5 km/h (1 Bft) 100,00 %
23.06.2018 14:04 14,4 C 14,4 C 13,3 C 84 % 1025,3 hPa 0,0 l/m 0 min 0 min 147 W/m 4,5 km/h (1 Bft) 100,00 %
23.06.2018 14:06 14,4 C 14,4 C 13,3 C 84 % 1025,3 hPa 0,0 l/m 0 min 0 min 152 W/m 2,3 km/h (1 Bft) 97,87 %
23.06.2018 14:08 14,4 C 15,0 C 13,3 C 84 % 1025,2 hPa 0,0 l/m 0 min 0 min 158 W/m 4,5 km/h (1 Bft) 100,00 %
23.06.2018 14:10 14,4 C 15,0 C 13,3 C 84 % 1025,2 hPa 0,0 l/m 0 min 0 min 163 W/m 0,0 km/h (0 Bft) 100,00 %
23.06.2018 14:12 14,4 C 15,0 C 13,3 C 84 % 1025,2 hPa 0,0 l/m 0 min 0 min 167 W/m 2,3 km/h (1 Bft) 97,83 %
23.06.2018 14:14 14,4 C 15,6 C 13,9 C 85 % 1025,3 hPa 0,0 l/m 0 min 0 min 162 W/m 2,3 km/h (1 Bft) 97,87 %
23.06.2018 14:16 14,4 C 15,6 C 13,9 C 85 % 1025,3 hPa 0,0 l/m 0 min 0 min 139 W/m 6,8 km/h (2 Bft) 97,87 %
23.06.2018 14:18 14,4 C 15,6 C 13,9 C 85 % 1025,2 hPa 0,0 l/m 0 min 0 min 115 W/m 4,5 km/h (1 Bft) 97,87 %
23.06.2018 14:20 14,4 C 15,0 C 13,9 C 85 % 1025,3 hPa 0,0 l/m 0 min 0 min 97 W/m 4,5 km/h (1 Bft) 97,87 %
23.06.2018 14:22 14,4 C 15,0 C 13,9 C 84 % 1025,2 hPa 0,0 l/m 0 min 0 min 90 W/m 2,3 km/h (1 Bft) 97,83 %
23.06.2018 14:24 14,5 C 15,0 C 13,9 C 84 % 1025,2 hPa 0,0 l/m 0 min 0 min 84 W/m 2,3 km/h (1 Bft) 97,87 %
23.06.2018 14:26 14,5 C 14,4 C 13,3 C 84 % 1025,2 hPa 0,0 l/m 0 min 0 min 77 W/m 6,8 km/h (2 Bft) 97,87 %
23.06.2018 14:28 14,5 C 14,4 C 13,3 C 84 % 1025,2 hPa 0,0 l/m 0 min 0 min 84 W/m 4,5 km/h (1 Bft) 95,74 %
23.06.2018 14:30 14,5 C 14,4 C 13,3 C 84 % 1025,2 hPa 0,0 l/m 0 min 0 min 95 W/m 4,5 km/h (1 Bft) 97,87 %
23.06.2018 14:32 14,6 C 14,4 C 13,3 C 84 % 1025,3 hPa 0,0 l/m 0 min 0 min 104 W/m 2,3 km/h (1 Bft) 97,87 %
23.06.2018 14:34 14,6 C 14,4 C 13,3 C 84 % 1025,2 hPa 0,0 l/m 0 min 0 min 114 W/m 4,5 km/h (1 Bft) 97,87 %
23.06.2018 14:36 14,6 C 15,0 C 13,3 C 84 % 1025,2 hPa 0,0 l/m 0 min 0 min 132 W/m 4,5 km/h (1 Bft) 97,83 %
23.06.2018 14:38 14,6 C 15,0 C 13,3 C 84 % 1025,2 hPa 0,0 l/m 0 min 0 min 139 W/m 4,5 km/h (1 Bft) 97,87 %
23.06.2018 14:40 14,6 C 15,0 C 13,9 C 84 % 1025,1 hPa 0,0 l/m 0 min 0 min 133 W/m 2,3 km/h (1 Bft) 95,74 %
23.06.2018 14:42 14,6 C 15,0 C 13,9 C 84 % 1025,2 hPa 0,0 l/m 0 min 0 min 132 W/m 0,0 km/h (0 Bft) 97,87 %
23.06.2018 14:44 14,6 C 15,0 C 13,9 C 84 % 1025,1 hPa 0,0 l/m 0 min 0 min 122 W/m 4,5 km/h (1 Bft) 95,74 %
23.06.2018 14:46 14,7 C 15,0 C 13,9 C 84 % 1025,0 hPa 0,0 l/m 0 min 0 min 110 W/m 4,5 km/h (1 Bft) 97,83 %
23.06.2018 14:48 14,7 C 14,4 C 13,9 C 84 % 1025,1 hPa 0,0 l/m 0 min 0 min 103 W/m 4,5 km/h (1 Bft) 97,87 %
23.06.2018 14:50 14,7 C 14,4 C 13,3 C 84 % 1025,1 hPa 0,0 l/m 0 min 0 min 97 W/m 9,0 km/h (2 Bft) 97,87 %
23.06.2018 14:52 14,7 C 14,4 C 13,3 C 84 % 1025,0 hPa 0,0 l/m 0 min 0 min 92 W/m 11,3 km/h (2 Bft) 95,74 %
23.06.2018 14:54 14,7 C 14,4 C 13,3 C 84 % 1025,0 hPa 0,0 l/m 0 min 2 min 98 W/m 9,0 km/h (2 Bft) 97,87 %
23.06.2018 14:56 14,7 C 13,9 C 13,3 C 84 % 1025,0 hPa 0,0 l/m 0 min 2 min 125 W/m 9,0 km/h (2 Bft) 97,87 %
23.06.2018 14:58 14,7 C 13,9 C 13,3 C 85 % 1025,0 hPa 0,0 l/m 0 min 0 min 164 W/m 11,3 km/h (2 Bft) 100,00 %
23.06.2018 15:00 14,7 C 14,4 C 13,3 C 85 % 1024,9 hPa 0,0 l/m 0 min 0 min 221 W/m 6,8 km/h (2 Bft) 97,87 %
23.06.2018 15:02 14,7 C 14,4 C 13,3 C 85 % 1024,9 hPa 0,0 l/m 0 min 0 min 284 W/m 6,8 km/h (2 Bft) 95,74 %
23.06.2018 15:04 14,7 C 15,0 C 13,3 C 85 % 1024,9 hPa 0,0 l/m 0 min 0 min 360 W/m 9,0 km/h (2 Bft) 100,00 %
23.06.2018 15:06 14,7 C 15,6 C 13,9 C 85 % 1024,8 hPa 0,0 l/m 0 min 0 min 378 W/m 9,0 km/h (2 Bft) 100,00 %
23.06.2018 15:08 14,8 C 16,1 C 13,9 C 86 % 1024,9 hPa 0,0 l/m 0 min 0 min 377 W/m 9,0 km/h (2 Bft) 100,00 %
23.06.2018 15:10 14,8 C 16,7 C 13,9 C 86 % 1024,8 hPa 0,0 l/m 0 min 0 min 397 W/m 4,5 km/h (1 Bft) 95,65 %
23.06.2018 15:12 14,8 C 17,2 C 14,4 C 86 % 1024,8 hPa 0,0 l/m 0 min 0 min 406 W/m 6,8 km/h (2 Bft) 95,74 %
23.06.2018 15:14 14,9 C 17,8 C 14,4 C 86 % 1024,7 hPa 0,0 l/m 2 min 0 min 455 W/m 6,8 km/h (2 Bft) 97,87 %
23.06.2018 15:16 14,9 C 17,8 C 14,4 C 86 % 1024,7 hPa 0,0 l/m 2 min 0 min 523 W/m 4,5 km/h (1 Bft) 97,92 %
23.06.2018 15:18 15,1 C 18,3 C 15,0 C 86 % 1024,7 hPa 0,0 l/m 2 min 0 min 604 W/m 6,8 km/h (2 Bft) 95,83 %
23.06.2018 15:20 15,1 C 18,9 C 15,0 C 86 % 1024,6 hPa 0,0 l/m 2 min 0 min 607 W/m 6,8 km/h (2 Bft) 100,00 %
23.06.2018 15:22 15,2 C 18,9 C 15,0 C 85 % 1024,6 hPa 0,0 l/m 2 min 0 min 628 W/m 9,0 km/h (2 Bft) 100,00 %
23.06.2018 15:24 15,3 C 18,9 C 15,0 C 85 % 1024,4 hPa 0,0 l/m 2 min 0 min 572 W/m 11,3 km/h (2 Bft) 95,74 %
23.06.2018 15:26 15,4 C 18,9 C 15,0 C 84 % 1024,4 hPa 0,0 l/m 2 min 0 min 561 W/m 11,3 km/h (2 Bft) 97,87 %
23.06.2018 15:28 15,6 C 19,4 C 15,6 C 84 % 1024,4 hPa 0,0 l/m 2 min 0 min 747 W/m 9,0 km/h (2 Bft) 97,87 %
23.06.2018 15:30 15,8 C 19,4 C 15,6 C 84 % 1024,4 hPa 0,0 l/m 2 min 0 min 924 W/m 9,0 km/h (2 Bft) 100,00 %
23.06.2018 15:32 15,9 C 18,9 C 16,1 C 83 % 1024,4 hPa 0,0 l/m 2 min 0 min 885 W/m 9,0 km/h (2 Bft) 97,83 %
23.06.2018 15:34 16,2 C 18,9 C 16,1 C 82 % 1024,4 hPa 0,0 l/m 2 min 0 min 934 W/m 13,5 km/h (3 Bft) 93,62 %
23.06.2018 15:36 16,3 C 18,9 C 16,1 C 82 % 1024,4 hPa 0,0 l/m 2 min 0 min 978 W/m 6,8 km/h (2 Bft) 97,87 %
23.06.2018 15:38 16,5 C 20,0 C 16,1 C 81 % 1024,3 hPa 0,0 l/m 2 min 0 min 979 W/m 6,8 km/h (2 Bft) 97,87 %
23.06.2018 15:40 16,7 C 20,0 C 16,7 C 80 % 1024,3 hPa 0,0 l/m 2 min 0 min 954 W/m 11,3 km/h (2 Bft) 97,87 %
23.06.2018 15:42 16,9 C 20,6 C 16,1 C 79 % 1024,3 hPa 0,0 l/m 2 min 0 min 894 W/m 15,8 km/h (3 Bft) 93,62 %
23.06.2018 15:44 17,1 C 20,0 C 16,7 C 79 % 1024,4 hPa 0,0 l/m 2 min 0 min 761 W/m 9,0 km/h (2 Bft) 95,65 %
23.06.2018 15:46 17,2 C 19,4 C 16,1 C 77 % 1024,3 hPa 0,0 l/m 0 min 0 min 403 W/m 11,3 km/h (2 Bft) 95,74 %
23.06.2018 15:48 17,3 C 20,0 C 16,1 C 77 % 1024,3 hPa 0,0 l/m 2 min 0 min 599 W/m 11,3 km/h (2 Bft) 95,74 %
23.06.2018 15:50 17,4 C 20,6 C 16,7 C 77 % 1024,3 hPa 0,0 l/m 2 min 0 min 661 W/m 9,0 km/h (2 Bft) 95,74 %
23.06.2018 15:52 17,4 C 20,6 C 16,7 C 76 % 1024,3 hPa 0,0 l/m 2 min 0 min 767 W/m 11,3 km/h (2 Bft) 93,62 %
23.06.2018 15:54 17,6 C 20,0 C 16,7 C 75 % 1024,3 hPa 0,0 l/m 2 min 0 min 500 W/m 6,8 km/h (2 Bft) 95,74 %
23.06.2018 15:56 17,6 C 20,0 C 16,7 C 75 % 1024,2 hPa 0,0 l/m 0 min 0 min 361 W/m 11,3 km/h (2 Bft) 95,65 %
23.06.2018 15:58 17,7 C 19,4 C 16,7 C 75 % 1024,2 hPa 0,0 l/m 0 min 0 min 308 W/m 6,8 km/h (2 Bft) 93,62 %
23.06.2018 16:00 17,7 C 19,4 C 16,7 C 75 % 1024,1 hPa 0,0 l/m 0 min 0 min 323 W/m 6,8 km/h (2 Bft) 95,74 %
23.06.2018 16:02 17,7 C 18,9 C 16,7 C 75 % 1024,1 hPa 0,0 l/m 2 min 0 min 399 W/m 11,3 km/h (2 Bft) 93,62 %
23.06.2018 16:04 17,8 C 18,9 C 16,7 C 74 % 1024,0 hPa 0,0 l/m 0 min 0 min 339 W/m 6,8 km/h (2 Bft) 95,74 %
23.06.2018 16:06 17,8 C 18,9 C 16,7 C 74 % 1024,0 hPa 0,0 l/m 0 min 0 min 335 W/m 9,0 km/h (2 Bft) 95,74 %
23.06.2018 16:08 17,8 C 18,9 C 16,7 C 74 % 1024,0 hPa 0,0 l/m 0 min 0 min 376 W/m 9,0 km/h (2 Bft) 95,65 %
23.06.2018 16:10 17,8 C 20,6 C 16,7 C 74 % 1024,0 hPa 0,0 l/m 2 min 0 min 703 W/m 9,0 km/h (2 Bft) 95,74 %
23.06.2018 16:12 17,8 C 20,0 C 16,7 C 74 % 1024,0 hPa 0,0 l/m 2 min 0 min 747 W/m 9,0 km/h (2 Bft) 95,74 %
23.06.2018 16:14 17,9 C 19,4 C 16,7 C 74 % 1024,0 hPa 0,0 l/m 2 min 0 min 402 W/m 6,8 km/h (2 Bft) 95,74 %
23.06.2018 16:16 17,9 C 20,0 C 16,7 C 74 % 1024,0 hPa 0,0 l/m 2 min 0 min 894 W/m 9,0 km/h (2 Bft) 93,62 %
23.06.2018 16:18 17,9 C 18,9 C 16,7 C 73 % 1024,0 hPa 0,0 l/m 0 min 0 min 291 W/m 6,8 km/h (2 Bft) 97,87 %
23.06.2018 16:20 17,9 C 18,3 C 16,7 C 73 % 1024,0 hPa 0,0 l/m 0 min 0 min 258 W/m 9,0 km/h (2 Bft) 95,65 %
23.06.2018 16:22 17,9 C 19,4 C 16,7 C 73 % 1024,0 hPa 0,0 l/m 0 min 0 min 295 W/m 11,3 km/h (2 Bft) 95,74 %
23.06.2018 16:24 18,0 C 20,0 C 16,7 C 73 % 1024,0 hPa 0,0 l/m 2 min 0 min 888 W/m 6,8 km/h (2 Bft) 97,87 %
23.06.2018 16:26 18,1 C 22,2 C 17,2 C 73 % 1023,9 hPa 0,0 l/m 2 min 0 min 888 W/m 9,0 km/h (2 Bft) 97,87 %
23.06.2018 16:28 18,2 C 22,8 C 17,2 C 73 % 1023,9 hPa 0,0 l/m 2 min 0 min 722 W/m 15,8 km/h (3 Bft) 97,87 %
23.06.2018 16:30 18,3 C 22,8 C 17,8 C 73 % 1023,9 hPa 0,0 l/m 2 min 0 min 718 W/m 15,8 km/h (3 Bft) 97,87 %
23.06.2018 16:32 18,4 C 22,2 C 17,8 C 71 % 1023,9 hPa 0,0 l/m 2 min 0 min 715 W/m 15,8 km/h (3 Bft) 91,30 %
23.06.2018 16:34 18,6 C 20,6 C 17,8 C 71 % 1023,7 hPa 0,0 l/m 2 min 0 min 772 W/m 9,0 km/h (2 Bft) 95,74 %
23.06.2018 16:36 18,6 C 20,0 C 17,2 C 71 % 1023,7 hPa 0,0 l/m 2 min 0 min 405 W/m 9,0 km/h (2 Bft) 93,18 %
23.06.2018 16:38 18,6 C 19,4 C 17,2 C 70 % 1023,8 hPa 0,0 l/m 2 min 0 min 426 W/m 13,5 km/h (3 Bft) 95,65 %
23.06.2018 16:40 18,6 C 19,4 C 17,2 C 70 % 1023,8 hPa 0,0 l/m 2 min 0 min 387 W/m 11,3 km/h (2 Bft) 95,74 %
23.06.2018 16:42 18,7 C 19,4 C 17,2 C 70 % 1023,8 hPa 0,0 l/m 2 min 0 min 400 W/m 4,5 km/h (1 Bft) 95,74 %
23.06.2018 16:44 18,6 C 19,4 C 17,2 C 70 % 1023,8 hPa 0,0 l/m 2 min 0 min 428 W/m 11,3 km/h (2 Bft) 95,74 %
23.06.2018 16:46 18,6 C 20,6 C 17,2 C 69 % 1023,7 hPa 0,0 l/m 2 min 0 min 448 W/m 11,3 km/h (2 Bft) 95,74 %
23.06.2018 16:48 18,6 C 21,1 C 17,2 C 70 % 1023,7 hPa 0,0 l/m 2 min 0 min 686 W/m 11,3 km/h (2 Bft) 97,87 %
23.06.2018 16:50 18,7 C 20,6 C 17,2 C 70 % 1023,8 hPa 0,0 l/m 2 min 0 min 515 W/m 6,8 km/h (2 Bft) 97,87 %
23.06.2018 16:52 18,7 C 20,6 C 17,2 C 69 % 1023,7 hPa 0,0 l/m 2 min 0 min 420 W/m 15,8 km/h (3 Bft) 97,83 %
23.06.2018 16:54 18,7 C 20,0 C 17,2 C 69 % 1023,6 hPa 0,0 l/m 2 min 0 min 529 W/m 6,8 km/h (2 Bft) 97,87 %
23.06.2018 16:56 18,7 C 20,0 C 17,2 C 69 % 1023,6 hPa 0,0 l/m 0 min 0 min 315 W/m 9,0 km/h (2 Bft) 95,74 %
23.06.2018 16:58 18,7 C 20,6 C 17,2 C 70 % 1023,5 hPa 0,0 l/m 2 min 0 min 471 W/m 4,5 km/h (1 Bft) 95,74 %
23.06.2018 17:00 18,7 C 20,6 C 17,2 C 69 % 1023,5 hPa 0,0 l/m 2 min 0 min 529 W/m 11,3 km/h (2 Bft) 97,87 %
23.06.2018 17:02 18,7 C 20,0 C 17,2 C 69 % 1023,5 hPa 0,0 l/m 2 min 0 min 498 W/m 18,0 km/h (3 Bft) 97,92 %
23.06.2018 17:04 18,7 C 20,0 C 17,2 C 69 % 1023,5 hPa 0,0 l/m 2 min 0 min 596 W/m 15,8 km/h (3 Bft) 95,74 %
23.06.2018 17:06 18,7 C 21,1 C 17,8 C 69 % 1023,4 hPa 0,0 l/m 2 min 0 min 661 W/m 9,0 km/h (2 Bft) 97,92 %
23.06.2018 17:08 18,8 C 21,7 C 17,8 C 69 % 1023,5 hPa 0,0 l/m 2 min 0 min 836 W/m 9,0 km/h (2 Bft) 97,87 %
23.06.2018 17:10 18,9 C 22,2 C 18,3 C 69 % 1023,4 hPa 0,0 l/m 2 min 0 min 808 W/m 9,0 km/h (2 Bft) 97,87 %
23.06.2018 17:12 19,0 C 21,7 C 18,3 C 69 % 1023,5 hPa 0,0 l/m 2 min 0 min 784 W/m 13,5 km/h (3 Bft) 97,87 %
23.06.2018 17:14 19,1 C 20,0 C 17,8 C 67 % 1023,4 hPa 0,0 l/m 2 min 0 min 346 W/m 15,8 km/h (3 Bft) 100,00 %
23.06.2018 17:16 19,1 C 19,4 C 17,2 C 67 % 1023,4 hPa 0,0 l/m 0 min 0 min 238 W/m 4,5 km/h (1 Bft) 97,87 %
23.06.2018 17:18 19,0 C 19,4 C 17,2 C 67 % 1023,3 hPa 0,0 l/m 0 min 0 min 261 W/m 15,8 km/h (3 Bft) 100,00 %
23.06.2018 17:20 18,9 C 18,9 C 17,2 C 67 % 1023,4 hPa 0,0 l/m 0 min 0 min 253 W/m 15,8 km/h (3 Bft) 100,00 %
23.06.2018 17:22 18,9 C 18,9 C 17,2 C 66 % 1023,5 hPa 0,0 l/m 0 min 0 min 239 W/m 11,3 km/h (2 Bft) 100,00 %
23.06.2018 17:24 18,8 C 18,9 C 16,7 C 66 % 1023,4 hPa 0,0 l/m 0 min 0 min 239 W/m 11,3 km/h (2 Bft) 95,74 %
23.06.2018 17:26 18,8 C 18,3 C 16,7 C 66 % 1023,4 hPa 0,0 l/m 0 min 0 min 265 W/m 20,3 km/h (4 Bft) 100,00 %
23.06.2018 17:28 18,7 C 18,9 C 16,7 C 66 % 1023,4 hPa 0,0 l/m 0 min 0 min 249 W/m 13,5 km/h (3 Bft) 100,00 %
23.06.2018 17:30 18,7 C 18,9 C 16,7 C 67 % 1023,5 hPa 0,0 l/m 0 min 0 min 223 W/m 4,5 km/h (1 Bft) 100,00 %
23.06.2018 17:32 18,7 C 18,9 C 17,2 C 68 % 1023,4 hPa 0,0 l/m 0 min 0 min 204 W/m 6,8 km/h (2 Bft) 95,74 %
23.06.2018 17:34 18,7 C 18,9 C 16,7 C 68 % 1023,4 hPa 0,0 l/m 0 min 0 min 209 W/m 18,0 km/h (3 Bft) 100,00 %
23.06.2018 17:36 18,6 C 18,9 C 17,2 C 68 % 1023,4 hPa 0,0 l/m 0 min 0 min 230 W/m 9,0 km/h (2 Bft) 100,00 %
23.06.2018 17:38 18,6 C 18,9 C 17,2 C 68 % 1023,4 hPa 0,0 l/m 0 min 0 min 266 W/m 9,0 km/h (2 Bft) 100,00 %
23.06.2018 17:40 18,6 C 19,4 C 17,2 C 68 % 1023,4 hPa 0,0 l/m 2 min 0 min 322 W/m 9,0 km/h (2 Bft) 100,00 %
23.06.2018 17:42 18,6 C 20,0 C 17,8 C 67 % 1023,2 hPa 0,0 l/m 2 min 0 min 751 W/m 9,0 km/h (2 Bft) 100,00 %
23.06.2018 17:44 18,7 C 20,0 C 17,8 C 68 % 1023,3 hPa 0,0 l/m 2 min 0 min 693 W/m 11,3 km/h (2 Bft) 100,00 %
23.06.2018 17:46 18,7 C 20,0 C 17,8 C 67 % 1023,2 hPa 0,0 l/m 2 min 0 min 718 W/m 9,0 km/h (2 Bft) 100,00 %
23.06.2018 17:48 18,8 C 20,0 C 17,8 C 69 % 1023,2 hPa 0,0 l/m 2 min 0 min 723 W/m 11,3 km/h (2 Bft) 100,00 %
23.06.2018 17:50 18,9 C 20,6 C 18,3 C 69 % 1023,2 hPa 0,0 l/m 2 min 0 min 733 W/m 6,8 km/h (2 Bft) 100,00 %
23.06.2018 17:52 18,9 C 20,0 C 18,3 C 68 % 1023,2 hPa 0,0 l/m 2 min 0 min 659 W/m 11,3 km/h (2 Bft) 100,00 %
23.06.2018 17:54 19,0 C 19,4 C 17,8 C 67 % 1023,2 hPa 0,0 l/m 0 min 0 min 258 W/m 6,8 km/h (2 Bft) 100,00 %
23.06.2018 17:56 19,0 C 19,4 C 17,8 C 68 % 1023,1 hPa 0,0 l/m 0 min 0 min 242 W/m 9,0 km/h (2 Bft) 100,00 %
23.06.2018 17:58 19,0 C 18,9 C 17,8 C 67 % 1023,1 hPa 0,0 l/m 0 min 0 min 213 W/m 6,8 km/h (2 Bft) 100,00 %
23.06.2018 18:00 19,0 C 18,9 C 17,2 C 68 % 1023,1 hPa 0,0 l/m 0 min 0 min 185 W/m 11,3 km/h (2 Bft) 100,00 %
23.06.2018 18:02 19,0 C 18,9 C 17,2 C 67 % 1023,1 hPa 0,0 l/m 0 min 0 min 153 W/m 9,0 km/h (2 Bft) 100,00 %
23.06.2018 18:04 19,0 C 18,3 C 17,2 C 67 % 1023,1 hPa 0,0 l/m 0 min 0 min 132 W/m 6,8 km/h (2 Bft) 100,00 %
23.06.2018 18:08 18,9 C 18,3 C 17,2 C 67 % 1023,1 hPa 0,0 l/m 0 min 0 min 157 W/m 6,8 km/h (2 Bft) 98,95 %
23.06.2018 18:10 18,8 C 18,3 C 17,2 C 67 % 1023,1 hPa 0,0 l/m 0 min 0 min 226 W/m 15,8 km/h (3 Bft) 100,00 %
23.06.2018 18:12 18,8 C 18,3 C 17,2 C 67 % 1023,1 hPa 0,0 l/m 0 min 0 min 180 W/m 9,0 km/h (2 Bft) 100,00 %
23.06.2018 18:14 18,7 C 18,3 C 16,7 C 67 % 1023,1 hPa 0,0 l/m 0 min 0 min 140 W/m 9,0 km/h (2 Bft) 97,87 %
23.06.2018 18:16 18,7 C 18,3 C 16,7 C 67 % 1023,0 hPa 0,0 l/m 0 min 0 min 150 W/m 11,3 km/h (2 Bft) 97,83 %
23.06.2018 18:18 18,6 C 18,3 C 16,7 C 68 % 1023,1 hPa 0,0 l/m 0 min 0 min 157 W/m 11,3 km/h (2 Bft) 97,87 %
23.06.2018 18:20 18,6 C 18,3 C 16,7 C 68 % 1023,0 hPa 0,0 l/m 0 min 0 min 155 W/m 13,5 km/h (3 Bft) 97,87 %
23.06.2018 18:22 18,5 C 18,3 C 16,7 C 68 % 1023,1 hPa 0,0 l/m 0 min 0 min 150 W/m 6,8 km/h (2 Bft) 97,87 %
23.06.2018 18:24 18,5 C 18,3 C 16,7 C 68 % 1023,0 hPa 0,0 l/m 0 min 0 min 146 W/m 9,0 km/h (2 Bft) 95,74 %
23.06.2018 18:26 18,4 C 18,3 C 16,7 C 69 % 1023,1 hPa 0,0 l/m 0 min 0 min 140 W/m 11,3 km/h (2 Bft) 95,74 %
23.06.2018 18:28 18,4 C 18,3 C 16,7 C 69 % 1023,1 hPa 0,0 l/m 0 min 0 min 139 W/m 11,3 km/h (2 Bft) 97,83 %
23.06.2018 18:30 18,3 C 17,8 C 16,7 C 68 % 1023,0 hPa 0,0 l/m 0 min 0 min 142 W/m 6,8 km/h (2 Bft) 93,62 %
23.06.2018 18:32 18,3 C 17,8 C 16,7 C 69 % 1023,0 hPa 0,0 l/m 0 min 0 min 156 W/m 6,8 km/h (2 Bft) 97,87 %
23.06.2018 18:34 18,3 C 17,8 C 16,7 C 69 % 1023,0 hPa 0,0 l/m 0 min 0 min 191 W/m 13,5 km/h (3 Bft) 97,87 %
23.06.2018 18:36 18,2 C 18,3 C 16,7 C 68 % 1023,0 hPa 0,0 l/m 0 min 0 min 234 W/m 13,5 km/h (3 Bft) 95,74 %
23.06.2018 18:38 18,2 C 18,9 C 16,7 C 68 % 1023,0 hPa 0,0 l/m 2 min 0 min 269 W/m 13,5 km/h (3 Bft) 97,87 %
23.06.2018 18:40 18,2 C 19,4 C 17,2 C 68 % 1022,9 hPa 0,0 l/m 2 min 0 min 444 W/m 13,5 km/h (3 Bft) 97,83 %
23.06.2018 18:42 18,3 C 19,4 C 17,2 C 69 % 1022,9 hPa 0,0 l/m 2 min 0 min 565 W/m 11,3 km/h (2 Bft) 97,87 %
23.06.2018 18:44 18,3 C 19,4 C 17,8 C 68 % 1022,9 hPa 0,0 l/m 2 min 0 min 377 W/m 15,8 km/h (3 Bft) 97,87 %
23.06.2018 18:46 18,4 C 19,4 C 17,8 C 69 % 1023,0 hPa 0,0 l/m 2 min 0 min 358 W/m 18,0 km/h (3 Bft) 95,74 %
23.06.2018 18:48 18,4 C 19,4 C 17,8 C 69 % 1023,0 hPa 0,0 l/m 2 min 0 min 255 W/m 6,8 km/h (2 Bft) 97,87 %
23.06.2018 18:50 18,5 C 19,4 C 17,8 C 69 % 1022,9 hPa 0,0 l/m 2 min 0 min 271 W/m 15,8 km/h (3 Bft) 97,87 %
23.06.2018 18:52 18,6 C 18,9 C 17,2 C 68 % 1022,9 hPa 0,0 l/m 2 min 0 min 268 W/m 15,8 km/h (3 Bft) 97,83 %
23.06.2018 18:54 18,6 C 19,4 C 17,2 C 68 % 1022,9 hPa 0,0 l/m 2 min 0 min 401 W/m 20,3 km/h (4 Bft) 94,44 %
23.06.2018 18:56 18,6 C 19,4 C 17,8 C 69 % 1022,9 hPa 0,0 l/m 2 min 0 min 527 W/m 9,0 km/h (2 Bft) 93,48 %
23.06.2018 18:58 18,7 C 20,0 C 17,8 C 69 % 1022,9 hPa 0,0 l/m 2 min 0 min 446 W/m 6,8 km/h (2 Bft) 93,62 %
23.06.2018 19:00 18,7 C 20,0 C 17,8 C 69 % 1022,9 hPa 0,0 l/m 2 min 0 min 271 W/m 9,0 km/h (2 Bft) 95,74 %
23.06.2018 19:02 18,7 C 20,0 C 17,8 C 69 % 1022,8 hPa 0,0 l/m 2 min 0 min 266 W/m 9,0 km/h (2 Bft) 95,74 %
23.06.2018 19:04 18,8 C 19,4 C 17,8 C 68 % 1022,8 hPa 0,0 l/m 2 min 0 min 215 W/m 11,3 km/h (2 Bft) 95,74 %
23.06.2018 19:06 18,8 C 19,4 C 17,8 C 68 % 1022,7 hPa 0,0 l/m 2 min 0 min 243 W/m 6,8 km/h (2 Bft) 94,64 %
23.06.2018 19:08 18,8 C 19,4 C 17,2 C 68 % 1022,8 hPa 0,0 l/m 2 min 0 min 230 W/m 11,3 km/h (2 Bft) 93,62 %
23.06.2018 19:10 18,8 C 18,9 C 17,2 C 68 % 1022,7 hPa 0,0 l/m 2 min 0 min 205 W/m 6,8 km/h (2 Bft) 97,87 %
23.06.2018 19:12 18,8 C 18,9 C 17,2 C 68 % 1022,7 hPa 0,0 l/m 2 min 0 min 195 W/m 9,0 km/h (2 Bft) 97,83 %
23.06.2018 19:14 18,8 C 18,9 C 17,2 C 69 % 1022,7 hPa 0,0 l/m 2 min 0 min 236 W/m 11,3 km/h (2 Bft) 97,87 %
23.06.2018 19:16 18,9 C 18,9 C 17,2 C 68 % 1022,7 hPa 0,0 l/m 2 min 0 min 202 W/m 6,8 km/h (2 Bft) 95,74 %
23.06.2018 19:18 18,9 C 19,4 C 17,2 C 68 % 1022,7 hPa 0,0 l/m 2 min 0 min 409 W/m 11,3 km/h (2 Bft) 93,62 %
23.06.2018 19:20 18,9 C 19,4 C 17,2 C 68 % 1022,6 hPa 0,0 l/m 2 min 0 min 413 W/m 9,0 km/h (2 Bft) 93,62 %
23.06.2018 19:22 18,8 C 18,9 C 17,2 C 68 % 1022,6 hPa 0,0 l/m 2 min 0 min 210 W/m 9,0 km/h (2 Bft) 93,62 %
23.06.2018 19:24 18,8 C 18,9 C 17,2 C 67 % 1022,6 hPa 0,0 l/m 2 min 0 min 195 W/m 13,5 km/h (3 Bft) 95,74 %
23.06.2018 19:26 18,8 C 18,9 C 17,2 C 67 % 1022,6 hPa 0,0 l/m 2 min 0 min 201 W/m 9,0 km/h (2 Bft) 93,62 %
23.06.2018 19:28 18,8 C 18,9 C 17,2 C 67 % 1022,6 hPa 0,0 l/m 2 min 0 min 263 W/m 6,8 km/h (2 Bft) 95,74 %
23.06.2018 19:30 18,8 C 18,9 C 17,2 C 68 % 1022,6 hPa 0,0 l/m 2 min 0 min 391 W/m 11,3 km/h (2 Bft) 95,74 %
23.06.2018 19:32 18,8 C 18,9 C 17,2 C 68 % 1022,5 hPa 0,0 l/m 0 min 0 min 137 W/m 9,0 km/h (2 Bft) 93,62 %
23.06.2018 19:34 18,7 C 18,3 C 17,2 C 68 % 1022,5 hPa 0,0 l/m 0 min 0 min 156 W/m 9,0 km/h (2 Bft) 97,83 %
23.06.2018 19:36 18,7 C 18,3 C 17,2 C 68 % 1022,5 hPa 0,0 l/m 2 min 0 min 262 W/m 9,0 km/h (2 Bft) 97,87 %
23.06.2018 19:38 18,7 C 18,3 C 17,2 C 68 % 1022,5 hPa 0,0 l/m 2 min 0 min 339 W/m 6,8 km/h (2 Bft) 97,87 %
23.06.2018 19:40 18,7 C 18,3 C 17,2 C 68 % 1022,5 hPa 0,0 l/m 2 min 0 min 171 W/m 9,0 km/h (2 Bft) 95,74 %
23.06.2018 19:42 18,6 C 18,3 C 16,7 C 68 % 1022,4 hPa 0,0 l/m 0 min 0 min 109 W/m 11,3 km/h (2 Bft) 97,87 %
23.06.2018 19:44 18,6 C 17,8 C 16,7 C 68 % 1022,5 hPa 0,0 l/m 0 min 0 min 114 W/m 11,3 km/h (2 Bft) 97,87 %
23.06.2018 19:46 18,5 C 17,8 C 16,7 C 68 % 1022,4 hPa 0,0 l/m 0 min 0 min 129 W/m 9,0 km/h (2 Bft) 97,83 %
23.06.2018 19:48 18,5 C 17,8 C 16,7 C 68 % 1022,4 hPa 0,0 l/m 0 min 0 min 125 W/m 9,0 km/h (2 Bft) 97,87 %
23.06.2018 19:50 18,4 C 17,8 C 16,7 C 68 % 1022,3 hPa 0,0 l/m 0 min 0 min 131 W/m 9,0 km/h (2 Bft) 95,74 %
23.06.2018 19:52 18,4 C 17,8 C 16,7 C 68 % 1022,4 hPa 0,0 l/m 2 min 0 min 233 W/m 9,0 km/h (2 Bft) 97,92 %
23.06.2018 19:54 18,4 C 18,3 C 16,7 C 69 % 1022,3 hPa 0,0 l/m 2 min 0 min 169 W/m 6,8 km/h (2 Bft) 100,00 %
23.06.2018 19:56 18,3 C 17,8 C 16,7 C 68 % 1022,3 hPa 0,0 l/m 0 min 0 min 117 W/m 9,0 km/h (2 Bft) 97,87 %
23.06.2018 19:58 18,3 C 17,8 C 16,7 C 68 % 1022,4 hPa 0,0 l/m 0 min 0 min 80 W/m 9,0 km/h (2 Bft) 95,74 %
23.06.2018 20:00 18,3 C 17,8 C 16,7 C 68 % 1022,3 hPa 0,0 l/m 0 min 0 min 72 W/m 11,3 km/h (2 Bft) 97,87 %
23.06.2018 20:02 18,3 C 17,8 C 16,7 C 69 % 1022,4 hPa 0,0 l/m 0 min 0 min 72 W/m 9,0 km/h (2 Bft) 97,87 %
23.06.2018 20:04 18,2 C 17,2 C 16,7 C 68 % 1022,4 hPa 0,0 l/m 0 min 0 min 70 W/m 6,8 km/h (2 Bft) 97,87 %
23.06.2018 20:06 18,2 C 17,2 C 16,7 C 68 % 1022,4 hPa 0,0 l/m 0 min 0 min 69 W/m 4,5 km/h (1 Bft) 96,43 %
23.06.2018 20:08 18,1 C 17,2 C 16,7 C 69 % 1022,3 hPa 0,0 l/m 0 min 0 min 67 W/m 6,8 km/h (2 Bft) 97,87 %
23.06.2018 20:10 18,1 C 17,2 C 16,7 C 69 % 1022,3 hPa 0,0 l/m 0 min 0 min 70 W/m 6,8 km/h (2 Bft) 97,83 %
23.06.2018 20:12 18,1 C 17,2 C 16,7 C 69 % 1022,2 hPa 0,0 l/m 0 min 0 min 82 W/m 6,8 km/h (2 Bft) 100,00 %
23.06.2018 20:14 18,1 C 17,2 C 16,7 C 69 % 1022,2 hPa 0,0 l/m 0 min 0 min 92 W/m 6,8 km/h (2 Bft) 100,00 %
23.06.2018 20:16 18,0 C 17,2 C 16,7 C 70 % 1022,2 hPa 0,0 l/m 0 min 0 min 98 W/m 9,0 km/h (2 Bft) 97,87 %
23.06.2018 20:18 18,0 C 17,2 C 16,7 C 70 % 1022,2 hPa 0,0 l/m 0 min 0 min 96 W/m 2,3 km/h (1 Bft) 100,00 %
23.06.2018 20:20 17,9 C 17,2 C 16,7 C 70 % 1022,2 hPa 0,0 l/m 0 min 0 min 87 W/m 4,5 km/h (1 Bft) 100,00 %
23.06.2018 20:22 17,9 C 17,2 C 16,7 C 70 % 1022,1 hPa 0,0 l/m 0 min 0 min 78 W/m 0,0 km/h (0 Bft) 100,00 %
23.06.2018 20:24 17,9 C 17,2 C 16,7 C 70 % 1022,1 hPa 0,0 l/m 0 min 0 min 71 W/m 2,3 km/h (1 Bft) 100,00 %
23.06.2018 20:26 17,9 C 17,2 C 16,7 C 71 % 1022,2 hPa 0,0 l/m 0 min 0 min 67 W/m 2,3 km/h (1 Bft) 100,00 %
23.06.2018 20:28 17,9 C 17,2 C 16,7 C 71 % 1022,2 hPa 0,0 l/m 0 min 0 min 63 W/m 2,3 km/h (1 Bft) 100,00 %
23.06.2018 20:30 17,8 C 17,2 C 16,7 C 71 % 1022,1 hPa 0,0 l/m 0 min 0 min 59 W/m 2,3 km/h (1 Bft) 100,00 %
23.06.2018 20:32 17,8 C 17,2 C 16,1 C 71 % 1022,1 hPa 0,0 l/m 0 min 0 min 56 W/m 4,5 km/h (1 Bft) 100,00 %
23.06.2018 20:34 17,8 C 17,2 C 16,1 C 72 % 1022,1 hPa 0,0 l/m 0 min 0 min 55 W/m 4,5 km/h (1 Bft) 100,00 %
23.06.2018 20:36 17,8 C 16,7 C 16,1 C 72 % 1022,1 hPa 0,0 l/m 0 min 0 min 53 W/m 4,5 km/h (1 Bft) 97,87 %
23.06.2018 20:38 17,7 C 16,7 C 16,1 C 72 % 1022,1 hPa 0,0 l/m 0 min 0 min 52 W/m 2,3 km/h (1 Bft) 100,00 %
23.06.2018 20:40 17,7 C 16,7 C 16,1 C 72 % 1022,1 hPa 0,0 l/m 0 min 0 min 49 W/m 2,3 km/h (1 Bft) 100,00 %
23.06.2018 20:42 17,7 C 16,7 C 16,1 C 72 % 1022,2 hPa 0,0 l/m 0 min 0 min 46 W/m 4,5 km/h (1 Bft) 100,00 %
23.06.2018 20:44 17,7 C 16,7 C 16,1 C 72 % 1022,1 hPa 0,0 l/m 0 min 0 min 42 W/m 4,5 km/h (1 Bft) 100,00 %
23.06.2018 20:46 17,6 C 16,7 C 16,1 C 72 % 1022,1 hPa 0,0 l/m 0 min 0 min 39 W/m 4,5 km/h (1 Bft) 97,87 %
23.06.2018 20:48 17,6 C 16,7 C 16,1 C 73 % 1022,1 hPa 0,0 l/m 0 min 0 min 36 W/m 0,0 km/h (0 Bft) 100,00 %
23.06.2018 20:50 17,6 C 16,7 C 16,1 C 73 % 1022,1 hPa 0,0 l/m 0 min 0 min 32 W/m 2,3 km/h (1 Bft) 100,00 %
23.06.2018 20:52 17,6 C 16,7 C 16,1 C 73 % 1022,1 hPa 0,0 l/m 0 min 0 min 28 W/m 2,3 km/h (1 Bft) 100,00 %
23.06.2018 20:54 17,6 C 16,7 C 16,1 C 73 % 1022,1 hPa 0,0 l/m 0 min 0 min 28 W/m 2,3 km/h (1 Bft) 97,87 %
23.06.2018 20:56 17,5 C 16,7 C 16,1 C 74 % 1022,1 hPa 0,0 l/m 0 min 0 min 26 W/m 2,3 km/h (1 Bft) 97,83 %
23.06.2018 20:58 17,5 C 16,7 C 16,1 C 74 % 1022,1 hPa 0,0 l/m 0 min 0 min 24 W/m 2,3 km/h (1 Bft) 100,00 %
23.06.2018 21:00 17,4 C 16,7 C 16,1 C 74 % 1022,0 hPa 0,0 l/m 0 min 0 min 22 W/m 0,0 km/h (0 Bft) 100,00 %
23.06.2018 21:02 17,4 C 16,1 C 15,6 C 74 % 1022,1 hPa 0,0 l/m 0 min 0 min 20 W/m 0,0 km/h (0 Bft) 100,00 %
23.06.2018 21:04 17,4 C 16,1 C 15,6 C 75 % 1022,0 hPa 0,0 l/m 0 min 0 min 19 W/m 0,0 km/h (0 Bft) 97,87 %
23.06.2018 21:06 17,4 C 16,1 C 15,6 C 75 % 1022,0 hPa 0,0 l/m 0 min 0 min 19 W/m 0,0 km/h (0 Bft) 100,00 %
23.06.2018 21:08 17,3 C 16,1 C 15,6 C 75 % 1022,0 hPa 0,0 l/m 0 min 0 min 18 W/m 0,0 km/h (0 Bft) 100,00 %
23.06.2018 21:10 17,3 C 16,1 C 15,6 C 75 % 1022,0 hPa 0,0 l/m 0 min 0 min 18 W/m 2,3 km/h (1 Bft) 97,87 %
23.06.2018 21:12 17,3 C 16,1 C 15,6 C 75 % 1022,0 hPa 0,0 l/m 0 min 0 min 18 W/m 0,0 km/h (0 Bft) 100,00 %
23.06.2018 21:14 17,2 C 16,1 C 15,6 C 75 % 1022,0 hPa 0,0 l/m 0 min 0 min 17 W/m 0,0 km/h (0 Bft) 100,00 %
23.06.2018 21:16 17,2 C 16,1 C 15,6 C 75 % 1022,0 hPa 0,0 l/m 0 min 0 min 16 W/m 0,0 km/h (0 Bft) 97,87 %
23.06.2018 21:18 17,1 C 16,1 C 15,6 C 75 % 1021,9 hPa 0,0 l/m 0 min 0 min 16 W/m 0,0 km/h (0 Bft) 97,87 %
23.06.2018 21:20 17,1 C 16,1 C 15,6 C 75 % 1021,9 hPa 0,0 l/m 0 min 0 min 16 W/m 0,0 km/h (0 Bft) 97,87 %
23.06.2018 21:22 17,0 C 15,6 C 15,6 C 75 % 1021,9 hPa 0,0 l/m 0 min 0 min 14 W/m 0,0 km/h (0 Bft) 95,74 %
23.06.2018 21:24 17,0 C 15,6 C 15,0 C 75 % 1021,9 hPa 0,0 l/m 0 min 0 min 14 W/m 2,3 km/h (1 Bft) 95,65 %
23.06.2018 21:26 16,9 C 15,6 C 15,0 C 75 % 1021,9 hPa 0,0 l/m 0 min 0 min 14 W/m 0,0 km/h (0 Bft) 95,74 %
23.06.2018 21:28 16,9 C 15,6 C 15,0 C 76 % 1021,9 hPa 0,0 l/m 0 min 0 min 14 W/m 0,0 km/h (0 Bft) 95,74 %
23.06.2018 21:30 16,9 C 15,6 C 15,0 C 75 % 1021,9 hPa 0,0 l/m 0 min 0 min 14 W/m 0,0 km/h (0 Bft) 89,36 %
23.06.2018 21:32 16,8 C 15,6 C 15,0 C 75 % 1021,9 hPa 0,0 l/m 0 min 0 min 14 W/m 0,0 km/h (0 Bft) 95,83 %
23.06.2018 21:34 16,8 C 15,6 C 15,0 C 75 % 1021,9 hPa 0,0 l/m 0 min 0 min 14 W/m 0,0 km/h (0 Bft) 95,74 %
23.06.2018 21:36 16,8 C 15,6 C 15,0 C 75 % 1021,9 hPa 0,0 l/m 0 min 0 min 14 W/m 0,0 km/h (0 Bft) 95,65 %
23.06.2018 21:38 16,8 C 15,6 C 15,0 C 75 % 1021,9 hPa 0,0 l/m 0 min 0 min 12 W/m 0,0 km/h (0 Bft) 95,74 %
23.06.2018 21:40 16,7 C 15,6 C 15,0 C 75 % 1021,9 hPa 0,0 l/m 0 min 0 min 12 W/m 0,0 km/h (0 Bft) 93,62 %
23.06.2018 21:42 16,7 C 15,6 C 15,0 C 76 % 1021,9 hPa 0,0 l/m 0 min 0 min 12 W/m 0,0 km/h (0 Bft) 95,74 %
23.06.2018 21:44 16,7 C 15,6 C 15,0 C 76 % 1021,9 hPa 0,0 l/m 0 min 0 min 11 W/m 0,0 km/h (0 Bft) 95,74 %
23.06.2018 21:46 16,7 C 15,6 C 15,0 C 76 % 1021,9 hPa 0,0 l/m 0 min 0 min 9 W/m 0,0 km/h (0 Bft) 95,74 %
23.06.2018 21:48 16,7 C 15,6 C 15,0 C 77 % 1022,0 hPa 0,0 l/m 0 min 0 min 8 W/m 0,0 km/h (0 Bft) 95,74 %
23.06.2018 21:50 16,6 C 15,6 C 15,0 C 77 % 1022,0 hPa 0,0 l/m 0 min 0 min 7 W/m 0,0 km/h (0 Bft) 93,62 %
23.06.2018 21:52 16,6 C 15,6 C 15,0 C 77 % 1022,0 hPa 0,0 l/m 0 min 0 min 7 W/m 0,0 km/h (0 Bft) 95,74 %
23.06.2018 21:54 16,6 C 15,6 C 15,0 C 77 % 1022,0 hPa 0,0 l/m 0 min 0 min 5 W/m 0,0 km/h (0 Bft) 95,74 %
23.06.2018 21:56 16,6 C 15,6 C 15,0 C 77 % 1022,0 hPa 0,0 l/m 0 min 0 min 5 W/m 0,0 km/h (0 Bft) 91,49 %
23.06.2018 21:58 16,5 C 15,6 C 14,4 C 77 % 1022,0 hPa 0,0 l/m 0 min 0 min 0 W/m 0,0 km/h (0 Bft) 95,65 %
23.06.2018 22:00 16,5 C 15,0 C 14,4 C 77 % 1022,0 hPa 0,0 l/m 0 min 0 min 0 W/m 0,0 km/h (0 Bft) 93,62 %
23.06.2018 22:02 16,4 C 15,0 C 14,4 C 77 % 1022,0 hPa 0,0 l/m 0 min 0 min 0 W/m 0,0 km/h (0 Bft) 91,49 %
23.06.2018 22:04 16,4 C 15,0 C 14,4 C 77 % 1022,0 hPa 0,0 l/m 0 min 0 min 0 W/m 0,0 km/h (0 Bft) 95,74 %
23.06.2018 22:06 16,4 C 15,0 C 14,4 C 77 % 1022,0 hPa 0,0 l/m 0 min 0 min 0 W/m 0,0 km/h (0 Bft) 97,14 %
23.06.2018 22:08 16,3 C 15,0 C 14,4 C 77 % 1022,0 hPa 0,0 l/m 0 min 0 min 0 W/m 0,0 km/h (0 Bft) 93,62 %
23.06.2018 22:10 16,3 C 15,0 C 14,4 C 77 % 1022,0 hPa 0,0 l/m 0 min 0 min 0 W/m 0,0 km/h (0 Bft) 93,62 %
23.06.2018 22:12 16,3 C 15,0 C 14,4 C 77 % 1022,0 hPa 0,0 l/m 0 min 0 min 0 W/m 0,0 km/h (0 Bft) 95,74 %
23.06.2018 22:14 16,2 C 15,0 C 14,4 C 77 % 1022,0 hPa 0,0 l/m 0 min 0 min 0 W/m 0,0 km/h (0 Bft) 89,13 %
23.06.2018 22:16 16,2 C 14,4 C 14,4 C 77 % 1022,0 hPa 0,0 l/m 0 min 0 min 0 W/m 0,0 km/h (0 Bft) 95,74 %
23.06.2018 22:18 16,2 C 14,4 C 13,9 C 78 % 1022,0 hPa 0,0 l/m 0 min 0 min 0 W/m 0,0 km/h (0 Bft) 95,74 %
23.06.2018 22:20 16,2 C 15,0 C 13,9 C 78 % 1022,0 hPa 0,0 l/m 0 min 0 min 0 W/m 0,0 km/h (0 Bft) 95,74 %
23.06.2018 22:22 16,1 C 15,0 C 13,9 C 78 % 1022,1 hPa 0,0 l/m 0 min 0 min 0 W/m 0,0 km/h (0 Bft) 95,74 %
23.06.2018 22:24 16,1 C 15,0 C 13,9 C 77 % 1022,1 hPa 0,0 l/m 0 min 0 min 0 W/m 0,0 km/h (0 Bft) 97,87 %
23.06.2018 22:26 16,1 C 15,0 C 13,9 C 78 % 1022,1 hPa 0,0 l/m 0 min 0 min 0 W/m 0,0 km/h (0 Bft) 97,83 %
23.06.2018 22:28 16,1 C 15,0 C 13,9 C 78 % 1022,1 hPa 0,0 l/m 0 min 0 min 0 W/m 0,0 km/h (0 Bft) 97,87 %
23.06.2018 22:30 16,0 C 14,4 C 13,9 C 78 % 1022,1 hPa 0,0 l/m 0 min 0 min 0 W/m 0,0 km/h (0 Bft) 95,74 %
23.06.2018 22:32 16,0 C 14,4 C 13,9 C 78 % 1022,1 hPa 0,0 l/m 0 min 0 min 0 W/m 0,0 km/h (0 Bft) 96,23 %
23.06.2018 22:34 15,9 C 14,4 C 13,9 C 78 % 1022,1 hPa 0,0 l/m 0 min 0 min 0 W/m 0,0 km/h (0 Bft) 97,87 %
23.06.2018 22:36 15,9 C 14,4 C 13,9 C 79 % 1022,1 hPa 0,0 l/m 0 min 0 min 0 W/m 0,0 km/h (0 Bft) 96,00 %
23.06.2018 22:38 15,9 C 14,4 C 13,9 C 79 % 1022,1 hPa 0,0 l/m 0 min 0 min 0 W/m 0,0 km/h (0 Bft) 97,87 %
23.06.2018 22:40 15,9 C 14,4 C 13,9 C 79 % 1022,1 hPa 0,0 l/m 0 min 0 min 0 W/m 0,0 km/h (0 Bft) 95,65 %
23.06.2018 22:42 15,8 C 14,4 C 13,9 C 79 % 1022,0 hPa 0,0 l/m 0 min 0 min 0 W/m 0,0 km/h (0 Bft) 95,74 %
23.06.2018 22:44 15,8 C 14,4 C 13,9 C 79 % 1022,0 hPa 0,0 l/m 0 min 0 min 0 W/m 0,0 km/h (0 Bft) 97,87 %
23.06.2018 22:46 15,8 C 14,4 C 13,9 C 79 % 1022,1 hPa 0,0 l/m 0 min 0 min 0 W/m 0,0 km/h (0 Bft) 97,87 %
23.06.2018 22:48 15,8 C 14,4 C 13,9 C 79 % 1022,1 hPa 0,0 l/m 0 min 0 min 0 W/m 0,0 km/h (0 Bft) 97,83 %
23.06.2018 22:50 15,7 C 14,4 C 13,9 C 79 % 1022,0 hPa 0,0 l/m 0 min 0 min 0 W/m 0,0 km/h (0 Bft) 95,74 %
23.06.2018 22:52 15,7 C 14,4 C 13,9 C 79 % 1022,1 hPa 0,0 l/m 0 min 0 min 0 W/m 0,0 km/h (0 Bft) 97,83 %
23.06.2018 22:54 15,7 C 14,4 C 13,9 C 79 % 1022,0 hPa 0,0 l/m 0 min 0 min 0 W/m 0,0 km/h (0 Bft) 97,87 %
23.06.2018 22:56 15,7 C 14,4 C 13,9 C 79 % 1022,0 hPa 0,0 l/m 0 min 0 min 0 W/m 0,0 km/h (0 Bft) 100,00 %
23.06.2018 22:58 15,6 C 14,4 C 13,9 C 80 % 1022,0 hPa 0,0 l/m 0 min 0 min 0 W/m 0,0 km/h (0 Bft) 100,00 %
23.06.2018 23:00 15,6 C 14,4 C 13,9 C 80 % 1022,0 hPa 0,0 l/m 0 min 0 min 0 W/m 0,0 km/h (0 Bft) 100,00 %
23.06.2018 23:02 15,6 C 14,4 C 13,9 C 80 % 1022,0 hPa 0,0 l/m 0 min 0 min 0 W/m 0,0 km/h (0 Bft) 100,00 %
23.06.2018 23:04 15,6 C 14,4 C 13,9 C 80 % 1022,1 hPa 0,0 l/m 0 min 0 min 0 W/m 0,0 km/h (0 Bft) 100,00 %
23.06.2018 23:06 15,5 C 14,4 C 13,9 C 80 % 1022,0 hPa 0,0 l/m 0 min 0 min 0 W/m 0,0 km/h (0 Bft) 100,00 %
23.06.2018 23:08 15,5 C 14,4 C 13,9 C 80 % 1022,1 hPa 0,0 l/m 0 min 0 min 0 W/m 0,0 km/h (0 Bft) 100,00 %
23.06.2018 23:10 15,4 C 14,4 C 13,9 C 81 % 1022,0 hPa 0,0 l/m 0 min 0 min 0 W/m 0,0 km/h (0 Bft) 100,00 %
23.06.2018 23:12 15,4 C 14,4 C 13,9 C 81 % 1022,0 hPa 0,0 l/m 0 min 0 min 0 W/m 0,0 km/h (0 Bft) 97,87 %
23.06.2018 23:14 15,4 C 14,4 C 13,9 C 81 % 1022,0 hPa 0,0 l/m 0 min 0 min 0 W/m 0,0 km/h (0 Bft) 100,00 %
23.06.2018 23:16 15,4 C 14,4 C 13,9 C 81 % 1022,0 hPa 0,0 l/m 0 min 0 min 0 W/m 0,0 km/h (0 Bft) 97,87 %
23.06.2018 23:18 15,4 C 13,9 C 13,9 C 82 % 1022,0 hPa 0,0 l/m 0 min 0 min 0 W/m 0,0 km/h (0 Bft) 100,00 %
23.06.2018 23:20 15,3 C 13,9 C 13,9 C 82 % 1022,0 hPa 0,0 l/m 0 min 0 min 0 W/m 0,0 km/h (0 Bft) 100,00 %
23.06.2018 23:22 15,3 C 14,4 C 13,9 C 82 % 1022,0 hPa 0,0 l/m 0 min 0 min 0 W/m 0,0 km/h (0 Bft) 100,00 %
23.06.2018 23:24 15,3 C 14,4 C 13,9 C 82 % 1022,0 hPa 0,0 l/m 0 min 0 min 0 W/m 0,0 km/h (0 Bft) 97,87 %
23.06.2018 23:26 15,2 C 14,4 C 13,9 C 82 % 1022,0 hPa 0,0 l/m 0 min 0 min 0 W/m 0,0 km/h (0 Bft) 97,87 %
23.06.2018 23:28 15,2 C 14,4 C 13,9 C 82 % 1022,0 hPa 0,0 l/m 0 min 0 min 0 W/m 0,0 km/h (0 Bft) 97,83 %
23.06.2018 23:30 15,2 C 13,9 C 13,9 C 82 % 1022,0 hPa 0,0 l/m 0 min 0 min 0 W/m 0,0 km/h (0 Bft) 100,00 %
23.06.2018 23:32 15,2 C 13,9 C 13,9 C 82 % 1022,0 hPa 0,0 l/m 0 min 0 min 0 W/m 0,0 km/h (0 Bft) 100,00 %
23.06.2018 23:34 15,2 C 13,9 C 13,9 C 82 % 1022,0 hPa 0,0 l/m 0 min 0 min 0 W/m 0,0 km/h (0 Bft) 100,00 %
23.06.2018 23:36 15,2 C 13,9 C 13,9 C 82 % 1021,9 hPa 0,0 l/m 0 min 0 min 0 W/m 0,0 km/h (0 Bft) 100,00 %
23.06.2018 23:38 15,1 C 13,9 C 13,9 C 82 % 1022,0 hPa 0,0 l/m 0 min 0 min 0 W/m 0,0 km/h (0 Bft) 100,00 %
23.06.2018 23:40 15,1 C 13,9 C 13,9 C 83 % 1021,9 hPa 0,0 l/m 0 min 0 min 0 W/m 0,0 km/h (0 Bft) 100,00 %
23.06.2018 23:42 15,1 C 13,9 C 13,9 C 83 % 1022,0 hPa 0,0 l/m 0 min 0 min 0 W/m 0,0 km/h (0 Bft) 100,00 %
23.06.2018 23:44 15,1 C 13,9 C 13,9 C 83 % 1022,0 hPa 0,0 l/m 0 min 0 min 0 W/m 0,0 km/h (0 Bft) 100,00 %
23.06.2018 23:46 15,0 C 13,9 C 13,9 C 83 % 1022,0 hPa 0,0 l/m 0 min 0 min 0 W/m 0,0 km/h (0 Bft) 100,00 %
23.06.2018 23:48 15,0 C 13,9 C 13,9 C 83 % 1022,0 hPa 0,0 l/m 0 min 0 min 0 W/m 0,0 km/h (0 Bft) 100,00 %
23.06.2018 23:50 15,0 C 13,9 C 13,9 C 83 % 1021,9 hPa 0,0 l/m 0 min 0 min 0 W/m 0,0 km/h (0 Bft) 100,00 %
23.06.2018 23:52 15,0 C 13,9 C 13,9 C 83 % 1021,9 hPa 0,0 l/m 0 min 0 min 0 W/m 0,0 km/h (0 Bft) 100,00 %
23.06.2018 23:54 14,9 C 13,9 C 13,9 C 83 % 1021,9 hPa 0,0 l/m 0 min 0 min 0 W/m 0,0 km/h (0 Bft) 100,00 %
23.06.2018 23:56 14,9 C 13,9 C 13,3 C 83 % 1022,0 hPa 0,0 l/m 0 min 0 min 0 W/m 0,0 km/h (0 Bft) 97,87 %
23.06.2018 23:58 14,9 C 13,9 C 13,3 C 83 % 1022,0 hPa 0,0 l/m 0 min 0 min 0 W/m 0,0 km/h (0 Bft) 100,00 %
_ Min-Zeit 05:58 05:28 05:14 17:22 21:18 - - - - 01:12 09:36
Minimum _ 8,8 C 7,8 C 8,3 C 66 % 1021,9 hPa - - - - 0,0 km/h (0 Bft) 88,57 %
_ Max-Zeit 17:14 16:28 17:10 06:32 00:08 00:00 06:56 11:22 15:38 10:00 01:06
Maximum _ 19,1 C 22,8 C 18,3 C 92 % 1025,7 hPa 0,0 l/m 2 min 2 min 979 W/m 20,3 km/h
W-NW (4 Bft)
100,00 %
Durchschnitt _ 13,9 C 13,9 C 13,0 C 82 % 1024,4 hPa #0,0 l/m #3:46 h #12 min. 206 W/m 5,0 km/h (1 Bft) 97,52 %
© 2018 W. Hausmann